| time (UTC) | temp F | wind direction | speed MPH | gust MPH | rain 1hr in | rain 24hr in | rain mn in | humidity % | barometer mb |
| 20260508151918 | 65 | 209 | 5.0 | 11.0 | 0.00 | 0.01 | 0.01 | 68 | 1048.2 |
| 20260508151909 | 65 | 218 | 4.0 | 11.0 | 0.00 | 0.01 | 0.01 | 68 | 1048.2 |
| 20260508151856 | 65 | 242 | 4.0 | 11.0 | 0.00 | 0.01 | 0.01 | 68 | 1048.2 |
| 20260508151537 | 65 | 206 | 4.0 | 11.0 | 0.00 | 0.01 | 0.01 | 68 | 1048.2 |
| 20260508151437 | 66 | 216 | 4.0 | 11.0 | 0.00 | 0.01 | 0.01 | 67 | 1048.2 |
| 20260508151337 | 66 | 170 | 3.0 | 11.0 | 0.00 | 0.01 | 0.01 | 67 | 1048.2 |
| 20260508151239 | 66 | 179 | 4.0 | 11.0 | 0.00 | 0.01 | 0.01 | 67 | 1048.2 |
| 20260508151133 | 66 | 168 | 4.0 | 11.0 | 0.00 | 0.01 | 0.01 | 67 | 1048.2 |
| 20260508151037 | 66 | 171 | 3.0 | 8.0 | 0.00 | 0.01 | 0.01 | 67 | 1048.2 |
| 20260508150937 | 66 | 180 | 3.0 | 8.0 | 0.00 | 0.01 | 0.01 | 66 | 1048.2 |
| 20260508150914 | 66 | 191 | 3.0 | 8.0 | 0.00 | 0.01 | 0.01 | 66 | 1048.2 |
| 20260508150906 | 66 | 231 | 3.0 | 8.0 | 0.00 | 0.01 | 0.01 | 65 | 1048.2 |
| 20260508150633 | 66 | 232 | 4.0 | 8.0 | 0.00 | 0.01 | 0.01 | 65 | 1048.2 |
| 20260508150536 | 66 | 110 | 4.0 | 8.0 | 0.00 | 0.01 | 0.01 | 64 | 1048.2 |
| 20260508150437 | 66 | 108 | 3.0 | 8.0 | 0.00 | 0.01 | 0.01 | 64 | 1048.2 |
| 20260508150336 | 66 | 203 | 3.0 | 8.0 | 0.00 | 0.01 | 0.01 | 63 | 1048.2 |
| 20260508150237 | 66 | 204 | 3.0 | 8.0 | 0.00 | 0.01 | 0.01 | 62 | 1048.2 |
| 20260508150136 | 66 | 125 | 3.0 | 8.0 | 0.00 | 0.01 | 0.01 | 62 | 1048.2 |
| 20260508150116 | 66 | 125 | 3.0 | 8.0 | 0.00 | 0.01 | 0.01 | 61 | 1048.2 |
| 20260508150101 | 66 | 124 | 3.0 | 8.0 | 0.00 | 0.01 | 0.01 | 61 | 1048.1 |
| 20260508145737 | 66 | 125 | 4.0 | 8.0 | 0.00 | 0.01 | 0.01 | 60 | 1048.2 |
| 20260508145644 | 67 | 124 | 3.0 | 8.0 | 0.00 | 0.01 | 0.01 | 60 | 1048.2 |
| 20260508145633 | 67 | 125 | 3.0 | 8.0 | 0.00 | 0.01 | 0.01 | 60 | 1048.2 |
| 20260508145536 | 67 | 169 | 3.0 | 8.0 | 0.00 | 0.01 | 0.01 | 60 | 1048.2 |
| 20260508145437 | 67 | 169 | 3.0 | 8.0 | 0.00 | 0.01 | 0.01 | 60 | 1048.2 |
| 20260508145400 | 67 | 169 | 3.0 | 8.0 | 0.00 | 0.01 | 0.01 | 60 | 1048.2 |
| 20260508145352 | 67 | 169 | 3.0 | 8.0 | 0.00 | 0.01 | 0.01 | 59 | 1048.1 |
| 20260508145329 | 67 | 169 | 3.0 | 8.0 | 0.00 | 0.01 | 0.01 | 59 | 1048.2 |
| 20260508145101 | 67 | 104 | 4.0 | 10.0 | 0.00 | 0.01 | 0.01 | 59 | 1048.2 |
| 20260508144733 | 67 | 103 | 4.0 | 10.0 | 0.00 | 0.01 | 0.01 | 59 | 1048.2 |
| 20260508144635 | 67 | 116 | 5.0 | 10.0 | 0.00 | 0.01 | 0.01 | 58 | 1048.1 |
| 20260508144533 | 67 | 116 | 5.0 | 10.0 | 0.00 | 0.01 | 0.01 | 58 | 1048.1 |
| 20260508144431 | 67 | 116 | 5.0 | 10.0 | 0.00 | 0.01 | 0.01 | 58 | 1048.2 |
| 20260508144332 | 67 | 116 | 5.0 | 10.0 | 0.00 | 0.01 | 0.01 | 57 | 1048.2 |
| 20260508144312 | 67 | 115 | 5.0 | 10.0 | 0.00 | 0.01 | 0.01 | 57 | 1048.2 |
| 20260508144254 | 67 | 116 | 5.0 | 10.0 | 0.00 | 0.01 | 0.01 | 58 | 1048.2 |
| 20260508144241 | 67 | 114 | 5.0 | 10.0 | 0.00 | 0.01 | 0.01 | 57 | 1048.3 |
| 20260508144010 | 68 | 126 | 4.0 | 10.0 | 0.00 | 0.01 | 0.01 | 58 | 1048.2 |
| 20260508143957 | 68 | 128 | 4.0 | 10.0 | 0.00 | 0.01 | 0.01 | 57 | 1048.2 |
| 20260508143943 | 68 | 101 | 4.0 | 10.0 | 0.00 | 0.01 | 0.01 | 57 | 1048.3 |
| 20260508143928 | 68 | 135 | 4.0 | 10.0 | 0.00 | 0.01 | 0.01 | 56 | 1048.2 |
| 20260508143918 | 68 | 133 | 3.0 | 10.0 | 0.00 | 0.01 | 0.01 | 56 | 1048.2 |
| 20260508143215 | 68 | 100 | 3.0 | 10.0 | 0.00 | 0.01 | 0.01 | 59 | 1048.3 |
| 20260508143204 | 67 | 59 | 3.0 | 7.0 | 0.00 | 0.01 | 0.01 | 59 | 1048.2 |
| 20260508143136 | 67 | 60 | 3.0 | 7.0 | 0.00 | 0.01 | 0.01 | 60 | 1048.2 |
| 20260508142903 | 67 | 57 | 3.0 | 7.0 | 0.00 | 0.01 | 0.01 | 58 | 1048.2 |
| 20260508142629 | 67 | 53 | 3.0 | 7.0 | 0.00 | 0.01 | 0.01 | 58 | 1048.3 |
| 20260508142529 | 67 | 130 | 3.0 | 7.0 | 0.00 | 0.01 | 0.01 | 58 | 1048.2 |
| 20260508142428 | 67 | 130 | 3.0 | 8.0 | 0.00 | 0.01 | 0.01 | 57 | 1048.3 |
| 20260508142330 | 67 | 130 | 4.0 | 8.0 | 0.00 | 0.01 | 0.01 | 57 | 1048.3 |
| 20260508142314 | 67 | 129 | 4.0 | 9.0 | 0.00 | 0.01 | 0.01 | 56 | 1048.3 |
| 20260508142250 | 67 | 129 | 4.0 | 9.0 | 0.00 | 0.01 | 0.01 | 56 | 1048.3 |
| 20260508141922 | 67 | 129 | 4.0 | 9.0 | 0.00 | 0.01 | 0.01 | 57 | 1048.3 |
| 20260508141819 | 67 | 129 | 4.0 | 9.0 | 0.00 | 0.01 | 0.01 | 55 | 1048.3 |
| 20260508141804 | 67 | 130 | 4.0 | 9.0 | 0.00 | 0.01 | 0.01 | 55 | 1048.3 |
| 20260508141744 | 67 | 124 | 4.0 | 9.0 | 0.00 | 0.01 | 0.01 | 54 | 1048.3 |
| 20260508141417 | 67 | 118 | 4.0 | 9.0 | 0.00 | 0.01 | 0.01 | 55 | 1048.4 |
| 20260508141318 | 67 | 115 | 4.0 | 9.0 | 0.00 | 0.01 | 0.01 | 55 | 1048.4 |
| 20260508141218 | 67 | 118 | 4.0 | 8.0 | 0.00 | 0.01 | 0.01 | 56 | 1048.3 |
| 20260508141116 | 67 | 118 | 3.0 | 8.0 | 0.00 | 0.01 | 0.01 | 56 | 1048.3 |
| 20260508141045 | 67 | 162 | 3.0 | 8.0 | 0.00 | 0.01 | 0.01 | 57 | 1048.4 |
| 20260508141037 | 67 | 166 | 2.0 | 8.0 | 0.00 | 0.01 | 0.01 | 57 | 1048.3 |
| 20260508140733 | 67 | 170 | 2.0 | 6.0 | 0.00 | 0.01 | 0.01 | 58 | 1048.3 |
| 20260508140715 | 67 | 172 | 2.0 | 6.0 | 0.00 | 0.01 | 0.01 | 58 | 1048.3 |
| 20260508140704 | 67 | 177 | 2.0 | 6.0 | 0.00 | 0.01 | 0.01 | 58 | 1048.3 |
| 20260508140657 | 67 | 43 | 2.0 | 6.0 | 0.00 | 0.01 | 0.01 | 57 | 1048.3 |
| 20260508140649 | 67 | 43 | 2.0 | 6.0 | 0.00 | 0.01 | 0.01 | 58 | 1048.3 |
| 20260508140638 | 67 | 43 | 1.0 | 6.0 | 0.00 | 0.01 | 0.01 | 59 | 1048.3 |
| 20260508140403 | 67 | 39 | 1.0 | 3.0 | 0.00 | 0.01 | 0.01 | 60 | 1048.3 |
| 20260508140133 | 67 | 39 | 2.0 | 3.0 | 0.00 | 0.01 | 0.01 | 59 | 1048.3 |
| 20260508140112 | 67 | 38 | 2.0 | 5.0 | 0.00 | 0.01 | 0.01 | 58 | 1048.4 |
| 20260508140055 | 67 | 38 | 2.0 | 5.0 | 0.00 | 0.01 | 0.01 | 59 | 1048.4 |
| 20260508135827 | 67 | 38 | 2.0 | 5.0 | 0.00 | 0.01 | 0.01 | 59 | 1048.4 |
| 20260508135558 | 67 | 38 | 2.0 | 5.0 | 0.00 | 0.01 | 0.01 | 60 | 1048.4 |
| 20260508135548 | 67 | 38 | 2.0 | 5.0 | 0.00 | 0.01 | 0.01 | 60 | 1048.4 |
| 20260508135540 | 67 | 38 | 2.0 | 5.0 | 0.00 | 0.01 | 0.01 | 59 | 1048.4 |
| 20260508135027 | 67 | 38 | 3.0 | 5.0 | 0.00 | 0.01 | 0.01 | 59 | 1048.5 |
| 20260508135017 | 67 | 38 | 3.0 | 5.0 | 0.00 | 0.01 | 0.01 | 59 | 1048.5 |
| 20260508134957 | 67 | 38 | 3.0 | 5.0 | 0.00 | 0.01 | 0.01 | 58 | 1048.5 |
| 20260508134946 | 67 | 243 | 3.0 | 7.0 | 0.00 | 0.01 | 0.01 | 58 | 1048.5 |
| 20260508134937 | 67 | 243 | 3.0 | 7.0 | 0.00 | 0.01 | 0.01 | 59 | 1048.6 |
| 20260508134352 | 67 | 243 | 3.0 | 7.0 | 0.00 | 0.01 | 0.01 | 59 | 1048.6 |
| 20260508134250 | 67 | 243 | 3.0 | 7.0 | 0.00 | 0.01 | 0.01 | 59 | 1048.6 |
| 20260508134125 | 67 | 243 | 3.0 | 7.0 | 0.00 | 0.01 | 0.01 | 60 | 1048.7 |
| 20260508134039 | 67 | 243 | 3.0 | 7.0 | 0.00 | 0.01 | 0.01 | 60 | 1048.7 |
| 20260508133941 | 67 | 243 | 3.0 | 7.0 | 0.00 | 0.01 | 0.01 | 60 | 1048.7 |
| 20260508133839 | 67 | 242 | 3.0 | 7.0 | 0.00 | 0.01 | 0.01 | 61 | 1048.7 |
| 20260508133739 | 66 | 243 | 2.0 | 7.0 | 0.00 | 0.01 | 0.01 | 63 | 1048.8 |
| 20260508133638 | 66 | 245 | 3.0 | 7.0 | 0.00 | 0.01 | 0.01 | 62 | 1048.8 |
| 20260508133623 | 66 | 245 | 3.0 | 7.0 | 0.00 | 0.01 | 0.01 | 61 | 1048.8 |
| 20260508133539 | 66 | 245 | 3.0 | 7.0 | 0.00 | 0.01 | 0.01 | 61 | 1048.7 |
| 20260508133505 | 66 | 245 | 3.0 | 7.0 | 0.00 | 0.01 | 0.01 | 60 | 1048.8 |
| 20260508133458 | 66 | 97 | 3.0 | 7.0 | 0.00 | 0.01 | 0.01 | 60 | 1048.7 |
| 20260508133123 | 66 | 97 | 3.0 | 7.0 | 0.00 | 0.01 | 0.01 | 61 | 1048.7 |
| 20260508133043 | 66 | 97 | 3.0 | 7.0 | 0.00 | 0.01 | 0.01 | 60 | 1048.7 |
| 20260508132956 | 66 | 100 | 3.0 | 7.0 | 0.00 | 0.01 | 0.01 | 60 | 1048.8 |
| 20260508132943 | 66 | 100 | 3.0 | 7.0 | 0.00 | 0.01 | 0.01 | 60 | 1049.0 |
| 20260508132932 | 66 | 100 | 3.0 | 7.0 | 0.00 | 0.01 | 0.01 | 60 | 1048.8 |
| 20260508132921 | 66 | 100 | 3.0 | 7.0 | 0.00 | 0.01 | 0.01 | 61 | 1049.0 |
| 20260508132653 | 66 | 177 | 3.0 | 7.0 | 0.00 | 0.01 | 0.01 | 61 | 1049.0 |
| 20260508132331 | 66 | 183 | 2.0 | 7.0 | 0.00 | 0.01 | 0.01 | 61 | 1049.0 |
| 20260508132231 | 66 | 90 | 2.0 | 7.0 | 0.00 | 0.01 | 0.01 | 61 | 1049.0 |
| 20260508132119 | 66 | 90 | 2.0 | 7.0 | 0.00 | 0.01 | 0.01 | 60 | 1049.0 |
| 20260508132032 | 66 | 90 | 2.0 | 7.0 | 0.00 | 0.01 | 0.01 | 60 | 1049.1 |
| 20260508131931 | 66 | 89 | 1.0 | 7.0 | 0.00 | 0.01 | 0.01 | 61 | 1049.0 |
| 20260508131829 | 66 | 89 | 1.0 | 7.0 | 0.00 | 0.01 | 0.01 | 61 | 1049.1 |
| 20260508131729 | 66 | 88 | 1.0 | 7.0 | 0.00 | 0.01 | 0.01 | 62 | 1049.1 |
| 20260508131701 | 66 | 135 | 1.0 | 6.0 | 0.00 | 0.01 | 0.01 | 61 | 1049.0 |
| 20260508131653 | 66 | 135 | 1.0 | 6.0 | 0.00 | 0.01 | 0.01 | 62 | 1049.0 |
| 20260508131322 | 66 | 135 | 1.0 | 6.0 | 0.00 | 0.01 | 0.01 | 62 | 1049.0 |
| 20260508131222 | 66 | 135 | 2.0 | 6.0 | 0.00 | 0.01 | 0.01 | 61 | 1049.0 |
| 20260508131105 | 66 | 135 | 2.0 | 6.0 | 0.00 | 0.01 | 0.01 | 62 | 1049.0 |
| 20260508131022 | 66 | 135 | 2.0 | 7.0 | 0.00 | 0.01 | 0.01 | 61 | 1049.0 |
| 20260508130918 | 66 | 136 | 3.0 | 8.0 | 0.00 | 0.01 | 0.01 | 62 | 1048.8 |
| 20260508130819 | 66 | 135 | 3.0 | 10.0 | 0.00 | 0.01 | 0.01 | 62 | 1048.8 |
| 20260508130717 | 66 | 135 | 2.0 | 10.0 | 0.00 | 0.01 | 0.01 | 61 | 1048.8 |
| 20260508130609 | 66 | 125 | 3.0 | 10.0 | 0.00 | 0.01 | 0.01 | 61 | 1048.8 |
| 20260508130517 | 66 | 125 | 2.0 | 10.0 | 0.00 | 0.01 | 0.01 | 61 | 1048.8 |
| 20260508130437 | 66 | 125 | 2.0 | 10.0 | 0.00 | 0.01 | 0.01 | 60 | 1048.8 |
| 20260508130431 | 66 | 128 | 2.0 | 10.0 | 0.00 | 0.01 | 0.01 | 60 | 1049.0 |
| 20260508130115 | 66 | 128 | 3.0 | 10.0 | 0.00 | 0.01 | 0.01 | 60 | 1049.0 |
| 20260508130105 | 66 | 129 | 3.0 | 10.0 | 0.00 | 0.01 | 0.01 | 60 | 1049.0 |
| 20260508130009 | 66 | 131 | 3.0 | 10.0 | 0.00 | 0.01 | 0.01 | 61 | 1049.1 |
| 20260508125908 | 66 | 170 | 3.0 | 10.0 | 0.00 | 0.01 | 0.01 | 62 | 1049.1 |
| 20260508125809 | 66 | 261 | 3.0 | 10.0 | 0.00 | 0.01 | 0.01 | 63 | 1049.1 |
| 20260508125709 | 66 | 261 | 3.0 | 10.0 | 0.00 | 0.01 | 0.01 | 62 | 1049.1 |
| 20260508125604 | 67 | 260 | 3.0 | 10.0 | 0.00 | 0.01 | 0.01 | 61 | 1049.1 |
| 20260508125511 | 67 | 260 | 3.0 | 10.0 | 0.00 | 0.01 | 0.01 | 61 | 1049.1 |
| 20260508125407 | 67 | 261 | 3.0 | 10.0 | 0.00 | 0.01 | 0.01 | 63 | 1049.2 |
| 20260508125307 | 67 | 261 | 4.0 | 10.0 | 0.00 | 0.01 | 0.01 | 63 | 1049.2 |
| 20260508125207 | 67 | 262 | 4.0 | 10.0 | 0.00 | 0.01 | 0.01 | 63 | 1049.2 |
| 20260508125105 | 67 | 262 | 4.0 | 11.0 | 0.00 | 0.01 | 0.01 | 63 | 1049.1 |
| 20260508125006 | 67 | 263 | 5.0 | 13.0 | 0.00 | 0.01 | 0.01 | 62 | 1049.1 |
| 20260508124907 | 67 | 262 | 5.0 | 13.0 | 0.00 | 0.01 | 0.01 | 63 | 1049.1 |
| 20260508124807 | 67 | 253 | 5.0 | 13.0 | 0.00 | 0.01 | 0.01 | 62 | 1049.1 |
| 20260508124723 | 67 | 221 | 5.0 | 13.0 | 0.00 | 0.01 | 0.01 | 62 | 1049.1 |
| 20260508124656 | 67 | 221 | 6.0 | 13.0 | 0.00 | 0.01 | 0.01 | 62 | 1049.0 |
| 20260508124651 | 67 | 221 | 6.0 | 13.0 | 0.00 | 0.01 | 0.01 | 62 | 1049.0 |
| 20260508124420 | 67 | 219 | 6.0 | 13.0 | 0.00 | 0.01 | 0.01 | 63 | 1049.0 |
| 20260508124411 | 67 | 231 | 6.0 | 13.0 | 0.00 | 0.01 | 0.01 | 63 | 1049.0 |
| 20260508124353 | 67 | 217 | 5.0 | 13.0 | 0.00 | 0.01 | 0.01 | 64 | 1049.1 |
| 20260508124338 | 67 | 247 | 5.0 | 10.0 | 0.00 | 0.01 | 0.01 | 65 | 1049.1 |
| 20260508124106 | 66 | 230 | 4.0 | 10.0 | 0.00 | 0.01 | 0.01 | 65 | 1049.1 |
| 20260508124059 | 66 | 230 | 4.0 | 10.0 | 0.00 | 0.01 | 0.01 | 65 | 1049.1 |
| 20260508123831 | 66 | 231 | 4.0 | 10.0 | 0.00 | 0.01 | 0.01 | 65 | 1049.1 |
| 20260508123821 | 66 | 210 | 4.0 | 11.0 | 0.00 | 0.01 | 0.01 | 66 | 1049.2 |
| 20260508123808 | 66 | 209 | 4.0 | 11.0 | 0.00 | 0.01 | 0.01 | 67 | 1049.1 |
| 20260508123106 | 66 | 170 | 4.0 | 11.0 | 0.00 | 0.01 | 0.01 | 67 | 1049.0 |
| 20260508123004 | 66 | 183 | 4.0 | 11.0 | 0.00 | 0.01 | 0.01 | 67 | 1049.1 |
| 20260508122859 | 66 | 183 | 4.0 | 11.0 | 0.00 | 0.01 | 0.01 | 67 | 1049.1 |
| 20260508122800 | 66 | 210 | 4.0 | 11.0 | 0.00 | 0.01 | 0.01 | 65 | 1049.1 |
| 20260508122659 | 66 | 174 | 4.0 | 11.0 | 0.00 | 0.01 | 0.01 | 65 | 1049.1 |
| 20260508122611 | 66 | 136 | 3.0 | 11.0 | 0.00 | 0.01 | 0.01 | 65 | 1049.0 |
| 20260508122557 | 66 | 136 | 3.0 | 11.0 | 0.00 | 0.01 | 0.01 | 65 | 1049.0 |
| 20260508122455 | 66 | 131 | 3.0 | 8.0 | 0.00 | 0.01 | 0.01 | 65 | 1049.1 |
| 20260508122357 | 66 | 154 | 3.0 | 7.0 | 0.00 | 0.01 | 0.01 | 66 | 1049.1 |
| 20260508122256 | 66 | 170 | 3.0 | 7.0 | 0.00 | 0.01 | 0.01 | 66 | 1049.2 |
| 20260508122154 | 66 | 172 | 3.0 | 8.0 | 0.00 | 0.01 | 0.01 | 66 | 1049.1 |
| 20260508122109 | 66 | 194 | 3.0 | 10.0 | 0.00 | 0.01 | 0.01 | 66 | 1049.1 |
| 20260508122056 | 66 | 199 | 3.0 | 10.0 | 0.00 | 0.01 | 0.01 | 66 | 1049.1 |
| 20260508121954 | 66 | 200 | 3.0 | 10.0 | 0.00 | 0.01 | 0.01 | 67 | 1049.1 |
| 20260508121855 | 66 | 215 | 3.0 | 10.0 | 0.00 | 0.01 | 0.01 | 67 | 1049.1 |
| 20260508121755 | 65 | 215 | 4.0 | 10.0 | 0.00 | 0.01 | 0.01 | 67 | 1049.0 |
| 20260508121653 | 65 | 215 | 4.0 | 10.0 | 0.00 | 0.01 | 0.01 | 67 | 1049.0 |
| 20260508121606 | 65 | 216 | 4.0 | 10.0 | 0.00 | 0.01 | 0.01 | 66 | 1049.0 |
| 20260508121553 | 65 | 216 | 4.0 | 10.0 | 0.00 | 0.01 | 0.01 | 66 | 1049.0 |
| 20260508121524 | 65 | 216 | 4.0 | 10.0 | 0.00 | 0.01 | 0.01 | 66 | 1049.0 |
| 20260508121516 | 65 | 215 | 4.0 | 10.0 | 0.00 | 0.01 | 0.01 | 66 | 1049.1 |
| 20260508121151 | 65 | 200 | 4.0 | 10.0 | 0.00 | 0.01 | 0.01 | 67 | 1049.2 |
| 20260508121120 | 65 | 114 | 4.0 | 7.0 | 0.00 | 0.01 | 0.01 | 67 | 1049.2 |
| 20260508121112 | 65 | 114 | 4.0 | 7.0 | 0.00 | 0.01 | 0.01 | 67 | 1049.2 |
| 20260508121101 | 65 | 165 | 3.0 | 7.0 | 0.00 | 0.01 | 0.01 | 66 | 1049.2 |
| 20260508121053 | 65 | 178 | 3.0 | 7.0 | 0.00 | 0.01 | 0.01 | 67 | 1049.2 |
| 20260508121042 | 65 | 145 | 3.0 | 7.0 | 0.00 | 0.01 | 0.01 | 68 | 1049.2 |
| 20260508121034 | 65 | 139 | 3.0 | 8.0 | 0.00 | 0.01 | 0.01 | 67 | 1049.2 |
| 20260508121025 | 65 | 139 | 4.0 | 8.0 | 0.00 | 0.01 | 0.01 | 67 | 1049.2 |
| 20260508121016 | 65 | 139 | 4.0 | 8.0 | 0.00 | 0.01 | 0.01 | 67 | 1049.2 |
| 20260508120747 | 65 | 139 | 4.0 | 8.0 | 0.00 | 0.01 | 0.01 | 66 | 1049.2 |
| 20260508120740 | 65 | 137 | 3.0 | 8.0 | 0.00 | 0.01 | 0.01 | 66 | 1049.2 |
| 20260508120732 | 65 | 143 | 3.0 | 8.0 | 0.00 | 0.01 | 0.01 | 67 | 1049.2 |
| 20260508120719 | 65 | 174 | 3.0 | 8.0 | 0.00 | 0.01 | 0.01 | 67 | 1049.2 |
| 20260508115636 | 65 | 185 | 2.0 | 8.0 | 0.00 | 0.01 | 0.01 | 68 | 1049.2 |
| 20260508115557 | 65 | 189 | 2.0 | 7.0 | 0.00 | 0.01 | 0.01 | 68 | 1049.2 |
| 20260508115536 | 65 | 188 | 2.0 | 7.0 | 0.00 | 0.01 | 0.01 | 68 | 1049.2 |
| 20260508115439 | 65 | 243 | 2.0 | 7.0 | 0.00 | 0.01 | 0.01 | 68 | 1049.2 |
| 20260508115334 | 65 | 242 | 2.0 | 7.0 | 0.00 | 0.01 | 0.01 | 69 | 1049.2 |
| 20260508115235 | 65 | 242 | 2.0 | 7.0 | 0.00 | 0.01 | 0.01 | 69 | 1049.2 |
| 20260508115135 | 65 | 242 | 3.0 | 7.0 | 0.00 | 0.01 | 0.01 | 69 | 1049.2 |
| 20260508115034 | 65 | 242 | 3.0 | 7.0 | 0.00 | 0.01 | 0.01 | 69 | 1049.2 |
| 20260508114938 | 65 | 242 | 3.0 | 7.0 | 0.00 | 0.01 | 0.01 | 68 | 1049.2 |
| 20260508114832 | 65 | 243 | 3.0 | 7.0 | 0.00 | 0.01 | 0.01 | 69 | 1049.1 |
| 20260508114733 | 65 | 211 | 3.0 | 7.0 | 0.00 | 0.01 | 0.01 | 69 | 1049.2 |
| 20260508114633 | 64 | 214 | 3.0 | 7.0 | 0.00 | 0.01 | 0.01 | 68 | 1049.2 |
| 20260508114533 | 64 | 214 | 3.0 | 7.0 | 0.00 | 0.01 | 0.01 | 68 | 1049.2 |
| 20260508114431 | 64 | 215 | 3.0 | 7.0 | 0.00 | 0.01 | 0.01 | 69 | 1049.2 |
| 20260508114332 | 64 | 215 | 3.0 | 7.0 | 0.00 | 0.01 | 0.01 | 68 | 1049.2 |
| 20260508114232 | 64 | 214 | 3.0 | 7.0 | 0.00 | 0.01 | 0.01 | 68 | 1049.2 |
| 20260508114132 | 64 | 204 | 3.0 | 7.0 | 0.00 | 0.01 | 0.01 | 68 | 1049.2 |
| 20260508114050 | 65 | 199 | 3.0 | 7.0 | 0.00 | 0.01 | 0.01 | 68 | 1049.2 |
| 20260508114032 | 65 | 199 | 2.0 | 7.0 | 0.00 | 0.01 | 0.01 | 68 | 1049.2 |
| 20260508113927 | 65 | 185 | 2.0 | 7.0 | 0.00 | 0.01 | 0.01 | 69 | 1049.1 |
| 20260508113824 | 65 | 187 | 2.0 | 7.0 | 0.00 | 0.01 | 0.01 | 68 | 1049.2 |
| 20260508113808 | 65 | 132 | 2.0 | 7.0 | 0.00 | 0.01 | 0.01 | 69 | 1049.2 |
| 20260508113756 | 65 | 199 | 3.0 | 7.0 | 0.00 | 0.01 | 0.01 | 69 | 1049.2 |
| 20260508113747 | 65 | 199 | 3.0 | 8.0 | 0.00 | 0.01 | 0.01 | 68 | 1049.2 |
| 20260508113442 | 65 | 199 | 3.0 | 8.0 | 0.00 | 0.01 | 0.01 | 68 | 1049.2 |
| 20260508113435 | 65 | 199 | 3.0 | 8.0 | 0.00 | 0.01 | 0.01 | 68 | 1049.2 |
| 20260508113423 | 65 | 200 | 3.0 | 8.0 | 0.00 | 0.01 | 0.01 | 68 | 1049.2 |
| 20260508113409 | 65 | 200 | 2.0 | 8.0 | 0.00 | 0.01 | 0.01 | 68 | 1049.1 |
| 20260508113357 | 65 | 157 | 2.0 | 8.0 | 0.00 | 0.01 | 0.01 | 68 | 1049.1 |
| 20260508112904 | 65 | 161 | 2.0 | 8.0 | 0.00 | 0.01 | 0.01 | 66 | 1049.1 |
| 20260508112857 | 65 | 161 | 2.0 | 8.0 | 0.00 | 0.01 | 0.01 | 67 | 1049.1 |
| 20260508112550 | 65 | 126 | 2.0 | 7.0 | 0.00 | 0.01 | 0.01 | 67 | 1049.1 |
| 20260508112514 | 65 | 121 | 2.0 | 7.0 | 0.00 | 0.01 | 0.01 | 67 | 1049.1 |
| 20260508112432 | 65 | 121 | 2.0 | 7.0 | 0.00 | 0.01 | 0.01 | 66 | 1049.1 |
| 20260508112423 | 65 | 120 | 3.0 | 7.0 | 0.00 | 0.01 | 0.01 | 66 | 1049.0 |
| 20260508112104 | 65 | 120 | 3.0 | 7.0 | 0.00 | 0.01 | 0.01 | 65 | 1049.0 |
| 20260508112049 | 65 | 120 | 3.0 | 7.0 | 0.00 | 0.01 | 0.01 | 65 | 1049.0 |
| 20260508112003 | 65 | 120 | 3.0 | 8.0 | 0.00 | 0.01 | 0.01 | 65 | 1049.0 |
| 20260508111856 | 65 | 120 | 3.0 | 8.0 | 0.00 | 0.01 | 0.01 | 65 | 1049.1 |
| 20260508111829 | 65 | 120 | 3.0 | 8.0 | 0.00 | 0.01 | 0.01 | 65 | 1049.0 |
| 20260508111821 | 66 | 119 | 3.0 | 8.0 | 0.00 | 0.01 | 0.01 | 65 | 1049.1 |
| 20260508111807 | 66 | 119 | 3.0 | 8.0 | 0.00 | 0.01 | 0.01 | 65 | 1049.1 |
| 20260508111458 | 66 | 113 | 3.0 | 8.0 | 0.00 | 0.01 | 0.01 | 65 | 1049.0 |
| 20260508111353 | 66 | 101 | 3.0 | 8.0 | 0.00 | 0.01 | 0.01 | 65 | 1049.0 |
| 20260508111254 | 66 | 100 | 3.0 | 8.0 | 0.00 | 0.01 | 0.01 | 67 | 1049.0 |
| 20260508111152 | 66 | 224 | 3.0 | 10.0 | 0.00 | 0.01 | 0.01 | 66 | 1049.0 |
| 20260508111049 | 66 | 225 | 4.0 | 10.0 | 0.00 | 0.01 | 0.01 | 67 | 1049.0 |
| 20260508110951 | 66 | 229 | 3.0 | 10.0 | 0.00 | 0.01 | 0.01 | 67 | 1049.0 |
| 20260508110844 | 66 | 229 | 4.0 | 10.0 | 0.00 | 0.01 | 0.01 | 66 | 1049.0 |
| 20260508110745 | 66 | 88 | 4.0 | 10.0 | 0.00 | 0.01 | 0.01 | 66 | 1049.0 |
| 20260508110645 | 66 | 86 | 4.0 | 10.0 | 0.00 | 0.01 | 0.01 | 66 | 1049.0 |
| 20260508110542 | 66 | 85 | 4.0 | 10.0 | 0.00 | 0.01 | 0.01 | 66 | 1049.0 |
| 20260508110441 | 66 | 83 | 4.0 | 10.0 | 0.00 | 0.01 | 0.01 | 64 | 1049.0 |
| 20260508110338 | 66 | 83 | 3.0 | 10.0 | 0.00 | 0.01 | 0.01 | 64 | 1049.0 |
| 20260508110238 | 66 | 84 | 3.0 | 10.0 | 0.00 | 0.01 | 0.01 | 64 | 1049.0 |
| 20260508110139 | 66 | 117 | 3.0 | 7.0 | 0.00 | 0.01 | 0.01 | 64 | 1049.1 |
| 20260508110038 | 66 | 114 | 3.0 | 7.0 | 0.00 | 0.01 | 0.01 | 65 | 1049.1 |
| 20260508105940 | 66 | 118 | 2.0 | 7.0 | 0.00 | 0.01 | 0.01 | 67 | 1049.1 |
| 20260508105837 | 66 | 205 | 2.0 | 6.0 | 0.00 | 0.01 | 0.01 | 67 | 1049.1 |
| 20260508105739 | 66 | 191 | 2.0 | 7.0 | 0.00 | 0.01 | 0.01 | 67 | 1049.1 |
| 20260508105730 | 66 | 164 | 2.0 | 7.0 | 0.00 | 0.01 | 0.01 | 67 | 1049.1 |
| 20260508105719 | 65 | 154 | 2.0 | 7.0 | 0.00 | 0.01 | 0.01 | 68 | 1049.1 |
| 20260508105712 | 65 | 154 | 2.0 | 7.0 | 0.00 | 0.01 | 0.01 | 68 | 1049.2 |
| 20260508105332 | 65 | 154 | 2.0 | 7.0 | 0.00 | 0.01 | 0.01 | 67 | 1049.1 |
| 20260508105232 | 65 | 154 | 3.0 | 7.0 | 0.00 | 0.01 | 0.01 | 67 | 1049.1 |
| 20260508105134 | 65 | 152 | 3.0 | 7.0 | 0.00 | 0.01 | 0.01 | 65 | 1049.1 |
| 20260508105053 | 65 | 152 | 3.0 | 7.0 | 0.00 | 0.01 | 0.01 | 65 | 1049.1 |
| 20260508105035 | 65 | 153 | 3.0 | 7.0 | 0.00 | 0.01 | 0.01 | 65 | 1049.1 |
| 20260508104932 | 65 | 152 | 3.0 | 7.0 | 0.00 | 0.01 | 0.01 | 65 | 1049.1 |
| 20260508104832 | 65 | 152 | 3.0 | 8.0 | 0.00 | 0.01 | 0.01 | 66 | 1049.1 |
| 20260508104732 | 65 | 106 | 3.0 | 8.0 | 0.00 | 0.01 | 0.01 | 66 | 1049.0 |
| 20260508104630 | 65 | 49 | 3.0 | 8.0 | 0.00 | 0.01 | 0.01 | 66 | 1049.0 |
| 20260508104545 | 65 | 49 | 3.0 | 8.0 | 0.00 | 0.01 | 0.01 | 66 | 1049.0 |
| 20260508104530 | 65 | 48 | 3.0 | 8.0 | 0.00 | 0.01 | 0.01 | 66 | 1049.0 |
| 20260508104430 | 65 | 41 | 4.0 | 8.0 | 0.00 | 0.01 | 0.01 | 66 | 1049.0 |
| 20260508104401 | 65 | 258 | 4.0 | 8.0 | 0.00 | 0.01 | 0.01 | 66 | 1049.0 |
| 20260508104347 | 65 | 97 | 4.0 | 8.0 | 0.00 | 0.01 | 0.01 | 66 | 1049.0 |
| 20260508104107 | 65 | 97 | 4.0 | 8.0 | 0.00 | 0.01 | 0.01 | 66 | 1049.1 |
| 20260508104058 | 66 | 97 | 4.0 | 8.0 | 0.00 | 0.01 | 0.01 | 66 | 1049.1 |
| 20260508104050 | 66 | 97 | 3.0 | 8.0 | 0.00 | 0.01 | 0.01 | 65 | 1049.1 |
| 20260508103810 | 66 | 99 | 3.0 | 8.0 | 0.00 | 0.01 | 0.01 | 65 | 1049.1 |
| 20260508103802 | 66 | 102 | 2.0 | 8.0 | 0.00 | 0.01 | 0.01 | 65 | 1049.1 |
| 20260508103746 | 66 | 169 | 2.0 | 8.0 | 0.00 | 0.01 | 0.01 | 64 | 1049.1 |
| 20260508103426 | 66 | 151 | 2.0 | 8.0 | 0.00 | 0.01 | 0.01 | 63 | 1049.1 |
| 20260508103324 | 66 | 109 | 2.0 | 8.0 | 0.00 | 0.01 | 0.01 | 64 | 1049.1 |
| 20260508103225 | 66 | 107 | 2.0 | 8.0 | 0.00 | 0.01 | 0.01 | 64 | 1049.1 |
| 20260508103122 | 66 | 108 | 2.0 | 8.0 | 0.00 | 0.01 | 0.01 | 65 | 1049.0 |
| 20260508103040 | 66 | 108 | 2.0 | 6.0 | 0.00 | 0.01 | 0.01 | 66 | 1049.0 |
| 20260508103027 | 66 | 110 | 2.0 | 4.0 | 0.00 | 0.01 | 0.01 | 66 | 1049.0 |
| 20260508102922 | 65 | 110 | 2.0 | 4.0 | 0.00 | 0.01 | 0.01 | 65 | 1049.1 |
| 20260508102823 | 65 | 110 | 2.0 | 4.0 | 0.00 | 0.01 | 0.01 | 64 | 1049.0 |
| 20260508102722 | 65 | 110 | 2.0 | 4.0 | 0.00 | 0.01 | 0.01 | 63 | 1049.1 |
| 20260508102620 | 65 | 110 | 2.0 | 4.0 | 0.00 | 0.01 | 0.01 | 62 | 1049.1 |
| 20260508102519 | 65 | 110 | 2.0 | 6.0 | 0.00 | 0.01 | 0.01 | 62 | 1049.1 |
| 20260508102417 | 65 | 110 | 3.0 | 8.0 | 0.00 | 0.01 | 0.01 | 62 | 1049.1 |
| 20260508102322 | 65 | 110 | 3.0 | 8.0 | 0.00 | 0.01 | 0.01 | 62 | 1049.2 |
| 20260508102219 | 65 | 110 | 3.0 | 8.0 | 0.00 | 0.01 | 0.01 | 61 | 1049.2 |
| 20260508102154 | 65 | 110 | 4.0 | 8.0 | 0.00 | 0.01 | 0.01 | 61 | 1049.1 |
| 20260508102138 | 66 | 110 | 4.0 | 8.0 | 0.00 | 0.01 | 0.01 | 61 | 1049.2 |
| 20260508101815 | 66 | 110 | 4.0 | 8.0 | 0.00 | 0.01 | 0.01 | 60 | 1049.2 |
| 20260508101748 | 66 | 110 | 4.0 | 8.0 | 0.00 | 0.01 | 0.01 | 59 | 1049.2 |
| 20260508101740 | 66 | 110 | 5.0 | 10.0 | 0.00 | 0.01 | 0.01 | 59 | 1049.2 |
| 20260508101729 | 66 | 110 | 4.0 | 10.0 | 0.00 | 0.01 | 0.01 | 57 | 1049.2 |
| 20260508101404 | 66 | 108 | 4.0 | 10.0 | 0.00 | 0.01 | 0.01 | 56 | 1049.2 |
| 20260508101333 | 66 | 102 | 4.0 | 10.0 | 0.00 | 0.01 | 0.01 | 57 | 1049.2 |
| 20260508101325 | 66 | 115 | 4.0 | 10.0 | 0.00 | 0.01 | 0.01 | 57 | 1049.2 |
| 20260508101036 | 67 | 131 | 4.0 | 10.0 | 0.00 | 0.01 | 0.01 | 57 | 1049.3 |
| 20260508101006 | 67 | 131 | 4.0 | 10.0 | 0.00 | 0.01 | 0.01 | 58 | 1049.3 |
| 20260508100854 | 67 | 131 | 4.0 | 10.0 | 0.00 | 0.01 | 0.01 | 58 | 1049.3 |
| 20260508100826 | 67 | 119 | 4.0 | 10.0 | 0.00 | 0.01 | 0.01 | 60 | 1049.2 |
| 20260508100819 | 67 | 88 | 4.0 | 10.0 | 0.00 | 0.01 | 0.01 | 59 | 1049.2 |
| 20260508100537 | 67 | 90 | 3.0 | 9.0 | 0.00 | 0.01 | 0.01 | 58 | 1049.2 |
| 20260508100454 | 67 | 87 | 3.0 | 9.0 | 0.00 | 0.01 | 0.01 | 58 | 1049.2 |
| 20260508100350 | 67 | 88 | 3.0 | 9.0 | 0.00 | 0.01 | 0.01 | 57 | 1049.1 |
| 20260508100249 | 67 | 88 | 3.0 | 9.0 | 0.00 | 0.01 | 0.01 | 57 | 1049.2 |
| 20260508100149 | 67 | 89 | 3.0 | 9.0 | 0.00 | 0.01 | 0.01 | 57 | 1049.2 |
| 20260508100049 | 67 | 118 | 3.0 | 9.0 | 0.00 | 0.01 | 0.01 | 57 | 1049.2 |
| 20260508100038 | 67 | 123 | 2.0 | 9.0 | 0.00 | 0.01 | 0.01 | 57 | 1049.3 |
| 20260508095948 | 67 | 164 | 2.0 | 9.0 | 0.00 | 0.01 | 0.01 | 59 | 1049.2 |
| 20260508095842 | 67 | 135 | 2.0 | 7.0 | 0.00 | 0.01 | 0.01 | 59 | 1049.2 |
| 20260508095743 | 67 | 316 | 2.0 | 7.0 | 0.00 | 0.01 | 0.01 | 61 | 1049.3 |
| 20260508095643 | 67 | 316 | 2.0 | 7.0 | 0.00 | 0.01 | 0.01 | 61 | 1049.2 |
| 20260508095536 | 67 | 140 | 3.0 | 7.0 | 0.00 | 0.01 | 0.01 | 60 | 1049.3 |
| 20260508095442 | 67 | 136 | 3.0 | 7.0 | 0.00 | 0.01 | 0.01 | 59 | 1049.3 |
| 20260508095339 | 67 | 136 | 3.0 | 7.0 | 0.00 | 0.01 | 0.01 | 59 | 1049.3 |
| 20260508095237 | 67 | 136 | 3.0 | 7.0 | 0.00 | 0.01 | 0.01 | 58 | 1049.4 |
| 20260508095137 | 67 | 137 | 3.0 | 7.0 | 0.00 | 0.01 | 0.01 | 58 | 1049.4 |
| 20260508095037 | 67 | 136 | 3.0 | 7.0 | 0.00 | 0.01 | 0.01 | 58 | 1049.4 |
| 20260508094935 | 67 | 136 | 3.0 | 7.0 | 0.00 | 0.01 | 0.01 | 59 | 1049.4 |
| 20260508094834 | 67 | 137 | 3.0 | 7.0 | 0.00 | 0.01 | 0.01 | 59 | 1049.4 |
| 20260508094818 | 66 | 174 | 3.0 | 7.0 | 0.00 | 0.01 | 0.01 | 59 | 1049.3 |
| 20260508094807 | 66 | 202 | 3.0 | 7.0 | 0.00 | 0.01 | 0.01 | 59 | 1049.3 |
| 20260508094532 | 66 | 247 | 3.0 | 7.0 | 0.00 | 0.01 | 0.01 | 59 | 1049.4 |
| 20260508094433 | 66 | 239 | 3.0 | 6.0 | 0.00 | 0.01 | 0.01 | 58 | 1049.3 |
| 20260508094332 | 66 | 240 | 3.0 | 6.0 | 0.00 | 0.01 | 0.01 | 57 | 1049.3 |
| 20260508094232 | 66 | 240 | 3.0 | 7.0 | 0.00 | 0.01 | 0.01 | 56 | 1049.3 |
| 20260508094131 | 66 | 239 | 3.0 | 7.0 | 0.00 | 0.01 | 0.01 | 55 | 1049.3 |
| 20260508094032 | 66 | 110 | 3.0 | 7.0 | 0.00 | 0.01 | 0.01 | 55 | 1049.3 |
| 20260508093932 | 66 | 110 | 3.0 | 7.0 | 0.00 | 0.01 | 0.01 | 55 | 1049.3 |
| 20260508093851 | 66 | 114 | 3.0 | 7.0 | 0.00 | 0.01 | 0.01 | 55 | 1049.4 |
| 20260508093842 | 66 | 114 | 3.0 | 7.0 | 0.00 | 0.01 | 0.01 | 55 | 1049.4 |
| 20260508093831 | 66 | 114 | 3.0 | 7.0 | 0.00 | 0.01 | 0.01 | 55 | 1049.4 |
| 20260508093600 | 66 | 113 | 3.0 | 7.0 | 0.00 | 0.01 | 0.01 | 57 | 1049.3 |
| 20260508093552 | 66 | 114 | 3.0 | 7.0 | 0.00 | 0.01 | 0.01 | 57 | 1049.3 |
| 20260508093315 | 66 | 191 | 3.0 | 7.0 | 0.00 | 0.01 | 0.01 | 57 | 1049.3 |
| 20260508093302 | 66 | 147 | 3.0 | 7.0 | 0.00 | 0.01 | 0.01 | 57 | 1049.3 |
| 20260508093027 | 66 | 147 | 3.0 | 7.0 | 0.00 | 0.01 | 0.01 | 57 | 1049.3 |
| 20260508092926 | 66 | 93 | 3.0 | 7.0 | 0.00 | 0.01 | 0.01 | 58 | 1049.3 |
| 20260508092852 | 66 | 234 | 3.0 | 7.0 | 0.00 | 0.01 | 0.01 | 57 | 1049.3 |
| 20260508092844 | 66 | 235 | 4.0 | 9.0 | 0.00 | 0.01 | 0.01 | 58 | 1049.3 |
| 20260508092828 | 66 | 237 | 4.0 | 9.0 | 0.00 | 0.01 | 0.01 | 58 | 1049.3 |
| 20260508092817 | 66 | 238 | 4.0 | 9.0 | 0.00 | 0.01 | 0.01 | 57 | 1049.3 |
| 20260508092549 | 66 | 237 | 4.0 | 9.0 | 0.00 | 0.01 | 0.01 | 58 | 1049.3 |
| 20260508092537 | 66 | 238 | 4.0 | 9.0 | 0.00 | 0.01 | 0.01 | 57 | 1049.3 |
| 20260508092251 | 66 | 239 | 4.0 | 9.0 | 0.00 | 0.01 | 0.01 | 58 | 1049.3 |
| 20260508092021 | 66 | 238 | 4.0 | 9.0 | 0.00 | 0.01 | 0.01 | 60 | 1049.4 |
| 20260508091915 | 66 | 239 | 4.0 | 9.0 | 0.00 | 0.01 | 0.01 | 59 | 1049.4 |
| 20260508091815 | 66 | 256 | 4.0 | 9.0 | 0.00 | 0.01 | 0.01 | 59 | 1049.3 |
| 20260508091715 | 66 | 231 | 3.0 | 8.0 | 0.00 | 0.01 | 0.01 | 59 | 1049.3 |
| 20260508091617 | 66 | 215 | 3.0 | 8.0 | 0.00 | 0.01 | 0.01 | 59 | 1049.4 |
| 20260508091525 | 66 | 208 | 3.0 | 8.0 | 0.00 | 0.01 | 0.01 | 58 | 1049.4 |
| 20260508091513 | 66 | 204 | 3.0 | 8.0 | 0.00 | 0.01 | 0.01 | 58 | 1049.4 |
| 20260508091412 | 65 | 104 | 3.0 | 8.0 | 0.00 | 0.01 | 0.01 | 59 | 1049.4 |
| 20260508091336 | 65 | 139 | 3.0 | 7.0 | 0.00 | 0.01 | 0.01 | 60 | 1049.4 |
| 20260508091329 | 65 | 131 | 3.0 | 7.0 | 0.00 | 0.01 | 0.01 | 61 | 1049.4 |
| 20260508091315 | 65 | 129 | 3.0 | 7.0 | 0.00 | 0.01 | 0.01 | 60 | 1049.4 |
| 20260508091303 | 65 | 129 | 3.0 | 7.0 | 0.00 | 0.01 | 0.01 | 60 | 1049.4 |
| 20260508091033 | 65 | 118 | 3.0 | 7.0 | 0.00 | 0.01 | 0.01 | 60 | 1049.4 |
| 20260508090709 | 65 | 115 | 3.0 | 7.0 | 0.00 | 0.01 | 0.01 | 60 | 1049.4 |
| 20260508090608 | 65 | 114 | 3.0 | 7.0 | 0.00 | 0.01 | 0.01 | 58 | 1049.4 |
| 20260508090508 | 65 | 114 | 3.0 | 7.0 | 0.00 | 0.01 | 0.01 | 58 | 1049.3 |
| 20260508090408 | 65 | 116 | 3.0 | 7.0 | 0.00 | 0.01 | 0.01 | 58 | 1049.3 |
| 20260508090309 | 65 | 129 | 3.0 | 7.0 | 0.00 | 0.01 | 0.01 | 59 | 1049.3 |
| 20260508090206 | 65 | 129 | 3.0 | 7.0 | 0.00 | 0.01 | 0.01 | 60 | 1049.3 |
| 20260508090108 | 65 | 120 | 3.0 | 7.0 | 0.00 | 0.01 | 0.01 | 59 | 1049.3 |
| 20260508090007 | 65 | 253 | 3.0 | 7.0 | 0.00 | 0.01 | 0.01 | 59 | 1049.3 |
| 20260508085907 | 65 | 253 | 3.0 | 7.0 | 0.00 | 0.01 | 0.01 | 59 | 1049.3 |
| 20260508085804 | 65 | 253 | 3.0 | 7.0 | 0.00 | 0.01 | 0.01 | 58 | 1049.3 |
| 20260508085739 | 65 | 253 | 3.0 | 7.0 | 0.00 | 0.01 | 0.01 | 60 | 1049.3 |
| 20260508085729 | 65 | 208 | 3.0 | 7.0 | 0.00 | 0.01 | 0.01 | 59 | 1049.3 |
| 20260508085720 | 65 | 205 | 3.0 | 7.0 | 0.00 | 0.01 | 0.01 | 59 | 1049.3 |
| 20260508085703 | 65 | 213 | 3.0 | 7.0 | 0.00 | 0.01 | 0.01 | 59 | 1049.3 |
| 20260508085438 | 65 | 150 | 3.0 | 7.0 | 0.00 | 0.01 | 0.01 | 60 | 1049.3 |
| 20260508085104 | 65 | 147 | 3.0 | 6.0 | 0.00 | 0.01 | 0.01 | 60 | 1049.3 |
| 20260508085023 | 64 | 146 | 3.0 | 6.0 | 0.00 | 0.01 | 0.01 | 60 | 1049.2 |
| 20260508085003 | 64 | 147 | 3.0 | 6.0 | 0.00 | 0.01 | 0.01 | 60 | 1049.2 |
| 20260508084904 | 64 | 147 | 3.0 | 6.0 | 0.00 | 0.01 | 0.01 | 60 | 1049.2 |
| 20260508084803 | 64 | 147 | 2.0 | 6.0 | 0.00 | 0.01 | 0.01 | 64 | 1049.2 |
| 20260508084703 | 64 | 147 | 2.0 | 6.0 | 0.00 | 0.01 | 0.01 | 63 | 1049.2 |
| 20260508084602 | 64 | 143 | 2.0 | 5.0 | 0.00 | 0.01 | 0.01 | 63 | 1049.2 |
| 20260508084536 | 64 | 143 | 2.0 | 4.0 | 0.00 | 0.01 | 0.01 | 63 | 1049.2 |
| 20260508084529 | 64 | 143 | 2.0 | 4.0 | 0.00 | 0.01 | 0.01 | 63 | 1049.2 |
| 20260508084520 | 64 | 143 | 2.0 | 4.0 | 0.00 | 0.01 | 0.01 | 63 | 1049.2 |
| 20260508084154 | 64 | 143 | 2.0 | 7.0 | 0.00 | 0.01 | 0.01 | 64 | 1049.2 |
| 20260508084056 | 64 | 143 | 2.0 | 7.0 | 0.00 | 0.01 | 0.01 | 63 | 1049.1 |
| 20260508084021 | 64 | 143 | 2.0 | 7.0 | 0.00 | 0.01 | 0.01 | 64 | 1049.1 |
| 20260508083956 | 64 | 143 | 2.0 | 7.0 | 0.00 | 0.01 | 0.01 | 64 | 1049.1 |
| 20260508083855 | 64 | 148 | 2.0 | 7.0 | 0.00 | 0.01 | 0.01 | 64 | 1049.1 |
| 20260508083751 | 64 | 148 | 3.0 | 7.0 | 0.00 | 0.01 | 0.01 | 65 | 1049.0 |
| 20260508083702 | 64 | 148 | 3.0 | 7.0 | 0.00 | 0.01 | 0.01 | 65 | 1049.0 |
| 20260508083645 | 63 | 149 | 3.0 | 7.0 | 0.00 | 0.01 | 0.01 | 65 | 1049.0 |
| 20260508083632 | 63 | 149 | 3.0 | 7.0 | 0.00 | 0.01 | 0.01 | 65 | 1049.0 |
| 20260508083623 | 63 | 149 | 3.0 | 7.0 | 0.00 | 0.01 | 0.01 | 65 | 1049.0 |
| 20260508083044 | 63 | 145 | 3.0 | 7.0 | 0.00 | 0.01 | 0.01 | 64 | 1049.1 |
| 20260508083029 | 63 | 145 | 3.0 | 7.0 | 0.00 | 0.01 | 0.01 | 63 | 1049.1 |
| 20260508083018 | 63 | 145 | 3.0 | 7.0 | 0.00 | 0.01 | 0.01 | 64 | 1049.1 |
| 20260508083004 | 63 | 145 | 3.0 | 7.0 | 0.00 | 0.01 | 0.01 | 65 | 1049.1 |
| 20260508082646 | 63 | 150 | 3.0 | 7.0 | 0.00 | 0.01 | 0.01 | 64 | 1049.0 |
| 20260508082544 | 63 | 150 | 3.0 | 7.0 | 0.00 | 0.01 | 0.01 | 64 | 1049.0 |
| 20260508082525 | 63 | 150 | 3.0 | 7.0 | 0.00 | 0.01 | 0.01 | 63 | 1049.0 |
| 20260508082445 | 63 | 150 | 3.0 | 7.0 | 0.00 | 0.01 | 0.01 | 63 | 1049.0 |
| 20260508082343 | 63 | 151 | 3.0 | 8.0 | 0.00 | 0.01 | 0.01 | 63 | 1049.0 |
| 20260508082242 | 63 | 150 | 3.0 | 8.0 | 0.00 | 0.01 | 0.01 | 62 | 1049.0 |
| 20260508082140 | 63 | 150 | 3.0 | 8.0 | 0.00 | 0.01 | 0.01 | 61 | 1049.0 |
| 20260508082042 | 63 | 150 | 3.0 | 8.0 | 0.00 | 0.01 | 0.01 | 61 | 1048.8 |
| 20260508082021 | 63 | 153 | 3.0 | 8.0 | 0.00 | 0.01 | 0.01 | 61 | 1048.8 |
| 20260508082010 | 63 | 160 | 3.0 | 8.0 | 0.00 | 0.01 | 0.01 | 61 | 1048.8 |
| 20260508082000 | 63 | 160 | 3.0 | 8.0 | 0.00 | 0.01 | 0.01 | 60 | 1048.8 |
| 20260508081640 | 63 | 160 | 2.0 | 8.0 | 0.00 | 0.01 | 0.01 | 59 | 1048.8 |
| 20260508081520 | 63 | 137 | 2.0 | 8.0 | 0.00 | 0.01 | 0.01 | 62 | 1048.8 |
| 20260508081440 | 63 | 137 | 2.0 | 7.0 | 0.00 | 0.01 | 0.01 | 66 | 1048.7 |
| 20260508081341 | 63 | 137 | 2.0 | 5.0 | 0.00 | 0.01 | 0.01 | 65 | 1048.7 |
| 20260508081242 | 63 | 137 | 2.0 | 5.0 | 0.00 | 0.01 | 0.01 | 65 | 1048.7 |
| 20260508081140 | 63 | 137 | 2.0 | 5.0 | 0.00 | 0.01 | 0.01 | 64 | 1048.6 |
| 20260508081020 | 63 | 137 | 2.0 | 5.0 | 0.00 | 0.01 | 0.01 | 64 | 1048.6 |
| 20260508080942 | 63 | 137 | 2.0 | 5.0 | 0.00 | 0.01 | 0.01 | 64 | 1048.6 |
| 20260508080838 | 63 | 137 | 3.0 | 5.0 | 0.00 | 0.01 | 0.01 | 64 | 1048.6 |
| 20260508080738 | 63 | 137 | 2.0 | 5.0 | 0.00 | 0.01 | 0.01 | 64 | 1048.6 |
| 20260508080636 | 63 | 135 | 2.0 | 5.0 | 0.00 | 0.01 | 0.01 | 65 | 1048.6 |
| 20260508080536 | 63 | 137 | 2.0 | 5.0 | 0.00 | 0.01 | 0.01 | 66 | 1048.6 |
| 20260508080519 | 63 | 138 | 2.0 | 5.0 | 0.00 | 0.01 | 0.01 | 66 | 1048.6 |
| 20260508080437 | 63 | 138 | 2.0 | 5.0 | 0.00 | 0.01 | 0.01 | 65 | 1048.6 |
| 20260508080339 | 63 | 138 | 2.0 | 5.0 | 0.00 | 0.01 | 0.01 | 65 | 1048.5 |
| 20260508080234 | 63 | 137 | 2.0 | 5.0 | 0.00 | 0.01 | 0.01 | 65 | 1048.5 |
| 20260508080134 | 63 | 138 | 1.0 | 5.0 | 0.00 | 0.01 | 0.01 | 66 | 1048.5 |
| 20260508080034 | 63 | 138 | 1.0 | 5.0 | 0.00 | 0.01 | 0.01 | 66 | 1048.5 |
| 20260508080018 | 63 | 137 | 1.0 | 5.0 | 0.00 | 0.01 | 0.01 | 66 | 1048.5 |
| 20260508075934 | 63 | 222 | 1.0 | 4.0 | 0.00 | 0.01 | 0.01 | 66 | 1048.5 |
| 20260508075834 | 63 | 222 | 1.0 | 4.0 | 0.00 | 0.01 | 0.01 | 66 | 1048.4 |
| 20260508075734 | 63 | 224 | 1.0 | 4.0 | 0.00 | 0.01 | 0.01 | 65 | 1048.4 |
| 20260508075632 | 63 | 223 | 1.0 | 4.0 | 0.00 | 0.01 | 0.01 | 66 | 1048.4 |
| 20260508075517 | 63 | 223 | 1.0 | 4.0 | 0.00 | 0.01 | 0.01 | 67 | 1048.5 |
| 20260508075505 | 63 | 222 | 0.0 | 4.0 | 0.00 | 0.01 | 0.01 | 70 | 1048.4 |
| 20260508075455 | 63 | 224 | 0.0 | 4.0 | 0.00 | 0.01 | 0.01 | 71 | 1048.4 |
| 20260508075443 | 63 | 226 | 0.0 | 2.0 | 0.00 | 0.01 | 0.01 | 71 | 1048.4 |
| 20260508075433 | 63 | 226 | 0.0 | 2.0 | 0.00 | 0.01 | 0.01 | 70 | 1048.4 |
| 20260508075425 | 63 | 225 | 1.0 | 2.0 | 0.00 | 0.01 | 0.01 | 71 | 1048.4 |
| 20260508074831 | 63 | 226 | 1.0 | 2.0 | 0.00 | 0.01 | 0.01 | 71 | 1048.3 |
| 20260508074731 | 63 | 226 | 1.0 | 2.0 | 0.00 | 0.01 | 0.01 | 72 | 1048.4 |
| 20260508074630 | 62 | 226 | 1.0 | 3.0 | 0.00 | 0.01 | 0.01 | 72 | 1048.3 |
| 20260508074524 | 62 | 226 | 1.0 | 3.0 | 0.00 | 0.01 | 0.01 | 72 | 1048.4 |
| 20260508074514 | 62 | 226 | 1.0 | 4.0 | 0.00 | 0.01 | 0.01 | 72 | 1048.4 |
| 20260508074454 | 62 | 226 | 2.0 | 4.0 | 0.00 | 0.01 | 0.01 | 72 | 1048.3 |
| 20260508074444 | 62 | 226 | 2.0 | 4.0 | 0.00 | 0.01 | 0.01 | 72 | 1048.3 |
| 20260508074122 | 62 | 228 | 2.0 | 4.0 | 0.00 | 0.01 | 0.01 | 72 | 1048.3 |
| 20260508074027 | 62 | 226 | 2.0 | 4.0 | 0.00 | 0.01 | 0.01 | 73 | 1048.4 |
| 20260508074014 | 62 | 226 | 2.0 | 5.0 | 0.00 | 0.01 | 0.01 | 72 | 1048.4 |
| 20260508073949 | 62 | 226 | 2.0 | 5.0 | 0.00 | 0.01 | 0.01 | 73 | 1048.4 |
| 20260508073939 | 62 | 226 | 2.0 | 5.0 | 0.00 | 0.01 | 0.01 | 73 | 1048.4 |
| 20260508073629 | 62 | 226 | 2.0 | 5.0 | 0.00 | 0.01 | 0.01 | 74 | 1048.4 |
| 20260508073611 | 62 | 226 | 2.0 | 5.0 | 0.00 | 0.01 | 0.01 | 74 | 1048.4 |
| 20260508073556 | 61 | 226 | 2.0 | 5.0 | 0.00 | 0.01 | 0.01 | 75 | 1048.4 |
| 20260508073546 | 61 | 226 | 2.0 | 5.0 | 0.00 | 0.01 | 0.01 | 74 | 1048.3 |
| 20260508073022 | 61 | 228 | 2.0 | 4.0 | 0.00 | 0.01 | 0.01 | 75 | 1048.3 |
| 20260508073008 | 61 | 229 | 2.0 | 4.0 | 0.00 | 0.01 | 0.01 | 75 | 1048.3 |
| 20260508072906 | 61 | 229 | 2.0 | 4.0 | 0.00 | 0.01 | 0.01 | 75 | 1048.4 |
| 20260508072811 | 61 | 230 | 2.0 | 4.0 | 0.00 | 0.01 | 0.01 | 75 | 1048.3 |
| 20260508072801 | 61 | 229 | 2.0 | 4.0 | 0.00 | 0.01 | 0.01 | 75 | 1048.3 |
| 20260508072745 | 61 | 230 | 2.0 | 4.0 | 0.00 | 0.01 | 0.01 | 75 | 1048.3 |
| 20260508072506 | 61 | 230 | 2.0 | 4.0 | 0.00 | 0.01 | 0.01 | 75 | 1048.4 |
| 20260508072437 | 61 | 231 | 3.0 | 4.0 | 0.00 | 0.01 | 0.01 | 75 | 1048.3 |
| 20260508072429 | 62 | 262 | 2.0 | 6.0 | 0.00 | 0.01 | 0.01 | 75 | 1048.3 |
| 20260508072418 | 62 | 272 | 2.0 | 6.0 | 0.00 | 0.01 | 0.01 | 75 | 1048.3 |
| 20260508072144 | 62 | 272 | 2.0 | 6.0 | 0.00 | 0.01 | 0.01 | 74 | 1048.3 |
| 20260508072137 | 62 | 272 | 2.0 | 6.0 | 0.00 | 0.01 | 0.01 | 74 | 1048.3 |
| 20260508071802 | 62 | 273 | 2.0 | 6.0 | 0.00 | 0.01 | 0.01 | 74 | 1048.3 |
| 20260508071748 | 62 | 272 | 1.0 | 6.0 | 0.00 | 0.01 | 0.01 | 74 | 1048.3 |
| 20260508071738 | 62 | 272 | 1.0 | 6.0 | 0.00 | 0.01 | 0.01 | 74 | 1048.3 |
| 20260508071502 | 62 | 272 | 1.0 | 6.0 | 0.00 | 0.01 | 0.01 | 74 | 1048.2 |
| 20260508071433 | 62 | 273 | 1.0 | 6.0 | 0.00 | 0.01 | 0.01 | 75 | 1048.2 |
| 20260508071425 | 62 | 274 | 1.0 | 3.0 | 0.00 | 0.01 | 0.01 | 75 | 1048.2 |
| 20260508071100 | 61 | 275 | 1.0 | 2.0 | 0.00 | 0.01 | 0.01 | 76 | 1048.2 |
| 20260508071012 | 61 | 275 | 1.0 | 2.0 | 0.00 | 0.01 | 0.01 | 76 | 1048.1 |
| 20260508071001 | 61 | 276 | 1.0 | 2.0 | 0.00 | 0.01 | 0.01 | 76 | 1048.1 |
| 20260508070903 | 61 | 275 | 1.0 | 2.0 | 0.00 | 0.01 | 0.01 | 76 | 1048.1 |
| 20260508070800 | 61 | 275 | 1.0 | 2.0 | 0.00 | 0.01 | 0.01 | 77 | 1048.1 |
| 20260508070700 | 61 | 275 | 1.0 | 2.0 | 0.00 | 0.01 | 0.01 | 77 | 1048.1 |
| 20260508070600 | 61 | 275 | 1.0 | 3.0 | 0.00 | 0.01 | 0.01 | 77 | 1048.1 |
| 20260508070512 | 60 | 275 | 1.0 | 3.0 | 0.00 | 0.01 | 0.01 | 77 | 1048.1 |
| 20260508070501 | 60 | 275 | 1.0 | 3.0 | 0.00 | 0.01 | 0.01 | 77 | 1048.1 |
| 20260508070358 | 60 | 275 | 1.0 | 3.0 | 0.00 | 0.01 | 0.01 | 77 | 1048.1 |
| 20260508070258 | 60 | 275 | 1.0 | 3.0 | 0.00 | 0.01 | 0.01 | 77 | 1048.1 |
| 20260508070158 | 60 | 275 | 1.0 | 3.0 | 0.00 | 0.01 | 0.01 | 78 | 1048.0 |
| 20260508070138 | 60 | 275 | 2.0 | 3.0 | 0.00 | 0.01 | 0.01 | 78 | 1048.1 |
| 20260508070126 | 60 | 275 | 2.0 | 4.0 | 0.00 | 0.01 | 0.01 | 78 | 1048.1 |
| 20260508070118 | 60 | 275 | 2.0 | 4.0 | 0.00 | 0.01 | 0.01 | 78 | 1048.1 |
| 20260508070104 | 60 | 276 | 2.0 | 4.0 | 0.00 | 0.01 | 0.01 | 79 | 1048.0 |
| 20260508070053 | 60 | 275 | 2.0 | 4.0 | 0.00 | 0.01 | 0.01 | 79 | 1048.0 |
| 20260508070044 | 60 | 275 | 2.0 | 4.0 | 0.00 | 0.01 | 0.01 | 79 | 1048.0 |
| 20260508070025 | 59 | 275 | 2.0 | 4.0 | 0.00 | 0.01 | 0.01 | 79 | 1048.0 |
| 20260508070018 | 59 | 275 | 2.0 | 4.0 | 0.00 | 0.01 | 0.01 | 80 | 1048.0 |
| 20260508070008 | 59 | 275 | 2.0 | 4.0 | 0.00 | 0.01 | 0.01 | 80 | 1048.0 |
| 20260508065746 | 59 | 275 | 2.0 | 4.0 | 0.00 | 0.01 | 0.01 | 80 | 1047.9 |
| 20260508065037 | 58 | 275 | 1.0 | 4.0 | 0.00 | 0.01 | 0.01 | 81 | 1047.9 |
| 20260508065030 | 58 | 275 | 1.0 | 4.0 | 0.00 | 0.01 | 0.01 | 82 | 1047.9 |
| 20260508065004 | 58 | 275 | 1.0 | 4.0 | 0.00 | 0.01 | 0.01 | 82 | 1047.9 |
| 20260508064511 | 58 | 275 | 1.0 | 3.0 | 0.00 | 0.01 | 0.01 | 83 | 1048.0 |
| 20260508064501 | 57 | 275 | 1.0 | 3.0 | 0.00 | 0.01 | 0.01 | 84 | 1047.9 |
| 20260508064448 | 57 | 275 | 1.0 | 3.0 | 0.00 | 0.01 | 0.01 | 84 | 1048.0 |
| 20260508064436 | 57 | 275 | 2.0 | 3.0 | 0.00 | 0.01 | 0.01 | 85 | 1047.9 |
| 20260508064426 | 57 | 275 | 2.0 | 3.0 | 0.00 | 0.01 | 0.01 | 85 | 1047.9 |
| 20260508064200 | 56 | 275 | 2.0 | 3.0 | 0.00 | 0.01 | 0.01 | 85 | 1047.9 |
| 20260508064149 | 56 | 275 | 2.0 | 3.0 | 0.00 | 0.01 | 0.01 | 85 | 1047.9 |
| 20260508064142 | 56 | 275 | 2.0 | 3.0 | 0.00 | 0.01 | 0.01 | 85 | 1047.9 |
| 20260508064131 | 56 | 276 | 2.0 | 3.0 | 0.00 | 0.01 | 0.01 | 86 | 1047.9 |
| 20260508064122 | 56 | 275 | 1.0 | 3.0 | 0.00 | 0.01 | 0.01 | 86 | 1047.9 |
| 20260508064112 | 56 | 276 | 2.0 | 3.0 | 0.00 | 0.01 | 0.01 | 86 | 1047.9 |
| 20260508063839 | 56 | 276 | 2.0 | 4.0 | 0.00 | 0.01 | 0.01 | 86 | 1047.9 |
| 20260508063831 | 55 | 275 | 2.0 | 4.0 | 0.00 | 0.01 | 0.01 | 86 | 1047.9 |
| 20260508063605 | 55 | 275 | 1.0 | 4.0 | 0.00 | 0.01 | 0.01 | 86 | 1047.9 |
| 20260508063338 | 55 | 275 | 1.0 | 4.0 | 0.00 | 0.01 | 0.01 | 87 | 1047.8 |
| 20260508062543 | 54 | 275 | 1.0 | 4.0 | 0.00 | 0.01 | 0.01 | 87 | 1047.8 |
| 20260508062508 | 54 | 275 | 1.0 | 4.0 | 0.00 | 0.01 | 0.01 | 87 | 1047.8 |
| 20260508062444 | 54 | 275 | 1.0 | 4.0 | 0.00 | 0.01 | 0.01 | 87 | 1047.8 |
| 20260508062344 | 54 | 274 | 1.0 | 3.0 | 0.00 | 0.01 | 0.01 | 87 | 1047.8 |
| 20260508062326 | 54 | 274 | 1.0 | 3.0 | 0.00 | 0.01 | 0.01 | 88 | 1047.8 |
| 20260508062320 | 54 | 275 | 2.0 | 3.0 | 0.00 | 0.01 | 0.01 | 88 | 1047.8 |
| 20260508062044 | 54 | 274 | 2.0 | 3.0 | 0.00 | 0.01 | 0.01 | 88 | 1047.8 |
| 20260508062037 | 54 | 275 | 2.0 | 3.0 | 0.00 | 0.01 | 0.01 | 88 | 1047.8 |
| 20260508062015 | 54 | 274 | 2.0 | 3.0 | 0.00 | 0.01 | 0.01 | 88 | 1047.8 |
| 20260508061640 | 53 | 275 | 2.0 | 3.0 | 0.00 | 0.01 | 0.01 | 89 | 1047.8 |
| 20260508061541 | 53 | 274 | 2.0 | 3.0 | 0.00 | 0.01 | 0.01 | 89 | 1047.8 |
| 20260508061505 | 53 | 274 | 2.0 | 3.0 | 0.00 | 0.01 | 0.01 | 89 | 1047.8 |
| 20260508061440 | 53 | 274 | 2.0 | 3.0 | 0.00 | 0.01 | 0.01 | 89 | 1047.8 |
| 20260508061340 | 53 | 274 | 2.0 | 3.0 | 0.00 | 0.01 | 0.01 | 90 | 1047.7 |
| 20260508061240 | 53 | 274 | 2.0 | 4.0 | 0.00 | 0.01 | 0.01 | 90 | 1047.7 |
| 20260508061140 | 53 | 274 | 2.0 | 4.0 | 0.00 | 0.01 | 0.01 | 90 | 1047.7 |
| 20260508061126 | 53 | 275 | 2.0 | 4.0 | 0.00 | 0.01 | 0.01 | 90 | 1047.8 |
| 20260508061117 | 52 | 274 | 2.0 | 4.0 | 0.00 | 0.01 | 0.01 | 90 | 1047.8 |
| 20260508061110 | 52 | 274 | 2.0 | 4.0 | 0.00 | 0.01 | 0.01 | 90 | 1047.8 |
| 20260508060742 | 52 | 274 | 2.0 | 4.0 | 0.00 | 0.01 | 0.01 | 90 | 1047.8 |
| 20260508060640 | 52 | 274 | 2.0 | 4.0 | 0.00 | 0.01 | 0.01 | 90 | 1047.9 |
| 20260508060616 | 52 | 274 | 3.0 | 4.0 | 0.00 | 0.01 | 0.01 | 90 | 1047.8 |
| 20260508060602 | 52 | 275 | 3.0 | 4.0 | 0.00 | 0.01 | 0.01 | 90 | 1047.7 |
| 20260508060248 | 51 | 274 | 3.0 | 6.0 | 0.00 | 0.01 | 0.01 | 91 | 1047.7 |
| 20260508060240 | 51 | 274 | 3.0 | 6.0 | 0.00 | 0.01 | 0.01 | 91 | 1047.7 |
| 20260508060225 | 51 | 274 | 3.0 | 6.0 | 0.00 | 0.01 | 0.01 | 91 | 1047.7 |
| 20260508055940 | 51 | 275 | 3.0 | 6.0 | 0.00 | 0.01 | 0.01 | 91 | 1047.7 |
| 20260508055909 | 51 | 275 | 3.0 | 6.0 | 0.00 | 0.01 | 0.01 | 91 | 1047.7 |
| 20260508055901 | 51 | 274 | 3.0 | 6.0 | 0.00 | 0.01 | 0.01 | 91 | 1047.7 |
| 20260508055541 | 51 | 274 | 3.0 | 6.0 | 0.00 | 0.01 | 0.01 | 91 | 1047.7 |
| 20260508055504 | 51 | 275 | 3.0 | 6.0 | 0.00 | 0.01 | 0.01 | 91 | 1047.7 |
| 20260508055440 | 51 | 274 | 3.0 | 6.0 | 0.00 | 0.01 | 0.01 | 91 | 1047.7 |
| 20260508055340 | 50 | 274 | 3.0 | 6.0 | 0.00 | 0.01 | 0.01 | 91 | 1047.7 |
| 20260508055311 | 50 | 274 | 3.0 | 6.0 | 0.00 | 0.01 | 0.01 | 91 | 1047.7 |
| 20260508055306 | 50 | 274 | 3.0 | 6.0 | 0.00 | 0.01 | 0.01 | 91 | 1047.7 |
| 20260508055244 | 50 | 274 | 3.0 | 6.0 | 0.00 | 0.01 | 0.01 | 92 | 1047.7 |
| 20260508055012 | 50 | 275 | 3.0 | 6.0 | 0.00 | 0.01 | 0.01 | 91 | 1047.8 |
| 20260508055003 | 50 | 274 | 3.0 | 6.0 | 0.00 | 0.01 | 0.01 | 91 | 1047.7 |
| 20260508054951 | 50 | 275 | 3.0 | 6.0 | 0.00 | 0.01 | 0.01 | 92 | 1047.7 |
| 20260508054930 | 50 | 274 | 3.0 | 7.0 | 0.00 | 0.01 | 0.01 | 92 | 1047.7 |
| 20260508054700 | 49 | 275 | 3.0 | 7.0 | 0.00 | 0.01 | 0.01 | 92 | 1047.8 |
| 20260508054336 | 49 | 274 | 4.0 | 7.0 | 0.00 | 0.01 | 0.01 | 92 | 1047.7 |
| 20260508054236 | 49 | 275 | 4.0 | 7.0 | 0.00 | 0.01 | 0.01 | 92 | 1047.7 |
| 20260508054136 | 49 | 275 | 4.0 | 7.0 | 0.00 | 0.01 | 0.01 | 92 | 1047.7 |
| 20260508054039 | 49 | 274 | 4.0 | 7.0 | 0.00 | 0.01 | 0.01 | 92 | 1047.7 |
| 20260508054004 | 49 | 274 | 4.0 | 7.0 | 0.00 | 0.01 | 0.01 | 92 | 1047.7 |
| 20260508053936 | 49 | 275 | 4.0 | 7.0 | 0.00 | 0.01 | 0.01 | 92 | 1047.8 |
| 20260508053836 | 49 | 274 | 3.0 | 7.0 | 0.00 | 0.01 | 0.01 | 92 | 1047.8 |
| 20260508053815 | 49 | 274 | 3.0 | 7.0 | 0.00 | 0.01 | 0.01 | 92 | 1047.9 |
| 20260508053807 | 48 | 273 | 3.0 | 7.0 | 0.00 | 0.01 | 0.01 | 92 | 1047.9 |
| 20260508053511 | 48 | 272 | 3.0 | 7.0 | 0.00 | 0.01 | 0.01 | 92 | 1047.9 |
| 20260508053436 | 48 | 272 | 3.0 | 7.0 | 0.00 | 0.01 | 0.01 | 92 | 1047.9 |
| 20260508053336 | 48 | 272 | 3.0 | 7.0 | 0.00 | 0.01 | 0.01 | 92 | 1047.9 |
| 20260508053309 | 48 | 272 | 2.0 | 4.0 | 0.00 | 0.01 | 0.01 | 92 | 1047.9 |
| 20260508053301 | 48 | 272 | 2.0 | 4.0 | 0.00 | 0.01 | 0.01 | 92 | 1047.9 |
| 20260508053005 | 47 | 271 | 2.0 | 4.0 | 0.00 | 0.01 | 0.01 | 92 | 1047.9 |
| 20260508052938 | 47 | 272 | 2.0 | 4.0 | 0.00 | 0.01 | 0.01 | 92 | 1047.9 |
| 20260508052836 | 47 | 272 | 3.0 | 4.0 | 0.00 | 0.01 | 0.01 | 91 | 1047.9 |
| 20260508052736 | 47 | 272 | 3.0 | 6.0 | 0.00 | 0.01 | 0.01 | 91 | 1047.9 |
| 20260508052718 | 47 | 271 | 3.0 | 6.0 | 0.00 | 0.01 | 0.01 | 91 | 1047.9 |
| 20260508052656 | 47 | 272 | 3.0 | 6.0 | 0.00 | 0.01 | 0.01 | 91 | 1047.8 |
| 20260508052336 | 47 | 272 | 3.0 | 6.0 | 0.00 | 0.01 | 0.01 | 91 | 1047.9 |
| 20260508052236 | 47 | 271 | 3.0 | 6.0 | 0.00 | 0.01 | 0.01 | 91 | 1047.8 |
| 20260508052140 | 47 | 271 | 3.0 | 6.0 | 0.00 | 0.01 | 0.01 | 91 | 1047.8 |
| 20260508052037 | 47 | 272 | 3.0 | 6.0 | 0.00 | 0.01 | 0.01 | 91 | 1047.8 |
| 20260508052006 | 47 | 272 | 3.0 | 6.0 | 0.00 | 0.01 | 0.01 | 91 | 1047.8 |
| 20260508051936 | 47 | 272 | 3.0 | 6.0 | 0.00 | 0.01 | 0.01 | 91 | 1047.8 |
| 20260508051916 | 47 | 272 | 3.0 | 6.0 | 0.00 | 0.01 | 0.01 | 91 | 1047.8 |
| 20260508051907 | 47 | 272 | 3.0 | 6.0 | 0.00 | 0.01 | 0.01 | 91 | 1047.8 |
| 20260508051608 | 47 | 271 | 3.0 | 4.0 | 0.00 | 0.01 | 0.01 | 91 | 1047.8 |
| 20260508051601 | 47 | 271 | 3.0 | 4.0 | 0.00 | 0.01 | 0.01 | 91 | 1047.8 |
| 20260508051236 | 47 | 271 | 2.0 | 4.0 | 0.00 | 0.01 | 0.01 | 91 | 1047.8 |
| 20260508051135 | 47 | 271 | 2.0 | 4.0 | 0.00 | 0.01 | 0.01 | 91 | 1047.8 |
| 20260508051037 | 47 | 271 | 2.0 | 4.0 | 0.00 | 0.01 | 0.01 | 91 | 1047.8 |
| 20260508051006 | 47 | 271 | 2.0 | 4.0 | 0.00 | 0.01 | 0.01 | 91 | 1047.8 |
| 20260508050938 | 47 | 271 | 2.0 | 4.0 | 0.00 | 0.01 | 0.01 | 91 | 1047.8 |
| 20260508050903 | 47 | 271 | 2.0 | 4.0 | 0.00 | 0.01 | 0.01 | 91 | 1047.8 |
| 20260508050853 | 47 | 271 | 2.0 | 3.0 | 0.00 | 0.01 | 0.01 | 91 | 1047.8 |
| 20260508050504 | 47 | 271 | 2.0 | 3.0 | 0.00 | 0.01 | 0.01 | 91 | 1047.7 |
| 20260508050432 | 47 | 271 | 2.0 | 3.0 | 0.00 | 0.01 | 0.01 | 91 | 1047.7 |
| 20260508050331 | 47 | 271 | 2.0 | 3.0 | 0.00 | 0.01 | 0.01 | 91 | 1047.7 |
| 20260508050242 | 47 | 271 | 2.0 | 4.0 | 0.00 | 0.01 | 0.01 | 90 | 1047.7 |
| 20260508050232 | 47 | 271 | 2.0 | 4.0 | 0.00 | 0.01 | 0.01 | 90 | 1047.7 |
| 20260508050211 | 47 | 271 | 2.0 | 4.0 | 0.00 | 0.01 | 0.01 | 90 | 1047.7 |
| 20260508045944 | 47 | 271 | 2.0 | 4.0 | 0.00 | 0.01 | 0.01 | 90 | 1047.7 |
| 20260508045621 | 47 | 271 | 2.0 | 4.0 | 0.00 | 0.01 | 0.01 | 91 | 1047.6 |
| 20260508045520 | 48 | 271 | 3.0 | 4.0 | 0.00 | 0.01 | 0.01 | 90 | 1047.6 |
| 20260508045501 | 48 | 270 | 3.0 | 4.0 | 0.00 | 0.01 | 0.01 | 90 | 1047.6 |
| 20260508045421 | 48 | 270 | 3.0 | 4.0 | 0.00 | 0.01 | 0.01 | 90 | 1047.6 |
| 20260508045320 | 48 | 271 | 3.0 | 4.0 | 0.00 | 0.01 | 0.01 | 90 | 1047.7 |
| 20260508045243 | 48 | 270 | 3.0 | 4.0 | 0.00 | 0.01 | 0.01 | 91 | 1047.6 |
| 20260508045234 | 48 | 271 | 2.0 | 4.0 | 0.00 | 0.01 | 0.01 | 91 | 1047.6 |
| 20260508045217 | 48 | 271 | 2.0 | 4.0 | 0.00 | 0.01 | 0.01 | 91 | 1047.6 |
| 20260508044917 | 48 | 271 | 2.0 | 4.0 | 0.00 | 0.01 | 0.01 | 91 | 1047.6 |
| 20260508044815 | 48 | 270 | 2.0 | 4.0 | 0.00 | 0.01 | 0.01 | 91 | 1047.6 |
| 20260508044715 | 48 | 270 | 2.0 | 4.0 | 0.00 | 0.01 | 0.01 | 91 | 1047.6 |
| 20260508044612 | 48 | 270 | 2.0 | 4.0 | 0.00 | 0.01 | 0.01 | 91 | 1047.5 |
| 20260508044547 | 48 | 270 | 1.0 | 4.0 | 0.00 | 0.01 | 0.01 | 90 | 1047.5 |
| 20260508044529 | 48 | 270 | 1.0 | 4.0 | 0.00 | 0.01 | 0.01 | 90 | 1047.5 |
| 20260508044515 | 48 | 270 | 1.0 | 4.0 | 0.00 | 0.01 | 0.01 | 90 | 1047.4 |
| 20260508044507 | 48 | 270 | 1.0 | 3.0 | 0.00 | 0.01 | 0.01 | 90 | 1047.4 |
| 20260508044006 | 48 | 270 | 0.0 | 2.0 | 0.00 | 0.01 | 0.01 | 90 | 1047.4 |
| 20260508043947 | 48 | 270 | 0.0 | 2.0 | 0.00 | 0.01 | 0.01 | 90 | 1047.4 |
| 20260508043720 | 48 | 270 | 0.0 | 2.0 | 0.00 | 0.01 | 0.01 | 91 | 1047.4 |
| 20260508043706 | 48 | 270 | 1.0 | 2.0 | 0.00 | 0.01 | 0.01 | 91 | 1047.4 |
| 20260508043649 | 48 | 270 | 1.0 | 2.0 | 0.00 | 0.01 | 0.01 | 91 | 1047.4 |
| 20260508043416 | 48 | 270 | 1.0 | 3.0 | 0.00 | 0.01 | 0.01 | 91 | 1047.4 |
| 20260508043406 | 49 | 270 | 1.0 | 3.0 | 0.00 | 0.01 | 0.01 | 91 | 1047.4 |
| 20260508043143 | 49 | 271 | 1.0 | 3.0 | 0.00 | 0.01 | 0.01 | 91 | 1047.3 |
| 20260508043132 | 49 | 270 | 1.0 | 3.0 | 0.00 | 0.01 | 0.01 | 91 | 1047.3 |
| 20260508043122 | 49 | 270 | 1.0 | 3.0 | 0.00 | 0.01 | 0.01 | 91 | 1047.3 |
| 20260508043114 | 49 | 270 | 1.0 | 3.0 | 0.00 | 0.01 | 0.01 | 91 | 1047.3 |
| 20260508042847 | 49 | 270 | 1.0 | 4.0 | 0.00 | 0.01 | 0.01 | 91 | 1047.3 |
| 20260508042831 | 49 | 270 | 1.0 | 4.0 | 0.00 | 0.01 | 0.01 | 91 | 1047.3 |
| 20260508042821 | 49 | 270 | 1.0 | 4.0 | 0.00 | 0.01 | 0.01 | 91 | 1047.3 |
| 20260508042328 | 49 | 270 | 2.0 | 4.0 | 0.00 | 0.01 | 0.01 | 91 | 1047.2 |
| 20260508042055 | 49 | 270 | 2.0 | 4.0 | 0.01 | 0.01 | 0.01 | 91 | 1047.3 |
| 20260508041827 | 49 | 270 | 2.0 | 4.0 | 0.01 | 0.01 | 0.01 | 91 | 1047.3 |
| 20260508041815 | 49 | 270 | 2.0 | 4.0 | 0.01 | 0.01 | 0.01 | 91 | 1047.2 |
| 20260508041750 | 49 | 270 | 3.0 | 4.0 | 0.01 | 0.01 | 0.01 | 90 | 1047.3 |
| 20260508041528 | 49 | 270 | 3.0 | 6.0 | 0.01 | 0.01 | 0.01 | 90 | 1047.2 |
| 20260508041203 | 49 | 270 | 3.0 | 6.0 | 0.01 | 0.01 | 0.01 | 90 | 1047.2 |
| 20260508041103 | 49 | 270 | 3.0 | 6.0 | 0.01 | 0.01 | 0.01 | 90 | 1047.2 |
| 20260508041023 | 49 | 270 | 3.0 | 6.0 | 0.01 | 0.01 | 0.01 | 90 | 1047.2 |
| 20260508041002 | 49 | 270 | 3.0 | 6.0 | 0.01 | 0.01 | 0.01 | 90 | 1047.2 |
| 20260508040954 | 49 | 270 | 3.0 | 6.0 | 0.01 | 0.01 | 0.01 | 90 | 1047.2 |
| 20260508040946 | 49 | 270 | 3.0 | 6.0 | 0.01 | 0.01 | 0.01 | 90 | 1047.2 |
| 20260508040933 | 49 | 270 | 3.0 | 6.0 | 0.01 | 0.01 | 0.01 | 90 | 1047.2 |
| 20260508040652 | 49 | 270 | 2.0 | 4.0 | 0.01 | 0.01 | 0.01 | 91 | 1047.2 |
| 20260508040645 | 49 | 270 | 2.0 | 4.0 | 0.01 | 0.01 | 0.01 | 91 | 1047.2 |
| 20260508040418 | 49 | 270 | 2.0 | 4.0 | 0.01 | 0.01 | 0.01 | 91 | 1047.1 |
| 20260508035901 | 49 | 270 | 2.0 | 4.0 | 0.01 | 0.01 | 0.01 | 91 | 1047.2 |
| 20260508035835 | 49 | 271 | 2.0 | 4.0 | 0.01 | 0.01 | 0.01 | 91 | 1047.2 |
| 20260508035826 | 49 | 270 | 2.0 | 4.0 | 0.01 | 0.01 | 0.01 | 91 | 1047.2 |
| 20260508035450 | 49 | 270 | 2.0 | 4.0 | 0.01 | 0.01 | 0.01 | 91 | 1047.2 |
| 20260508035434 | 49 | 270 | 2.0 | 4.0 | 0.01 | 0.01 | 0.01 | 91 | 1047.1 |
| 20260508035351 | 49 | 271 | 2.0 | 4.0 | 0.01 | 0.01 | 0.01 | 91 | 1047.1 |
| 20260508035312 | 49 | 270 | 2.0 | 4.0 | 0.01 | 0.01 | 0.01 | 91 | 1047.1 |
| 20260508035306 | 49 | 270 | 2.0 | 4.0 | 0.01 | 0.01 | 0.01 | 91 | 1047.2 |
| 20260508034945 | 49 | 270 | 2.0 | 4.0 | 0.01 | 0.01 | 0.01 | 91 | 1047.1 |
| 20260508034933 | 49 | 271 | 2.0 | 6.0 | 0.01 | 0.01 | 0.01 | 91 | 1047.1 |
| 20260508034844 | 49 | 271 | 2.0 | 6.0 | 0.01 | 0.01 | 0.01 | 91 | 1047.1 |
| 20260508034745 | 49 | 271 | 3.0 | 6.0 | 0.01 | 0.01 | 0.01 | 91 | 1047.1 |
| 20260508034644 | 49 | 271 | 2.0 | 6.0 | 0.01 | 0.01 | 0.01 | 91 | 1047.1 |
| 20260508034544 | 49 | 271 | 2.0 | 6.0 | 0.01 | 0.01 | 0.01 | 91 | 1047.1 |
| 20260508034512 | 49 | 271 | 2.0 | 6.0 | 0.01 | 0.01 | 0.01 | 91 | 1047.1 |
| 20260508034459 | 49 | 272 | 2.0 | 6.0 | 0.01 | 0.01 | 0.01 | 91 | 1047.1 |
| 20260508034136 | 49 | 271 | 2.0 | 6.0 | 0.01 | 0.01 | 0.01 | 91 | 1047.0 |
| 20260508034118 | 49 | 271 | 2.0 | 6.0 | 0.01 | 0.01 | 0.01 | 91 | 1047.1 |
| 20260508034102 | 49 | 271 | 2.0 | 6.0 | 0.01 | 0.01 | 0.01 | 91 | 1047.1 |
| 20260508033736 | 49 | 270 | 2.0 | 4.0 | 0.01 | 0.01 | 0.01 | 91 | 1047.0 |
| 20260508033636 | 49 | 270 | 2.0 | 6.0 | 0.01 | 0.01 | 0.01 | 91 | 1047.1 |
| 20260508033536 | 49 | 270 | 2.0 | 6.0 | 0.01 | 0.01 | 0.01 | 91 | 1047.1 |
| 20260508033432 | 49 | 270 | 3.0 | 6.0 | 0.01 | 0.01 | 0.01 | 91 | 1047.1 |
| 20260508033334 | 49 | 270 | 3.0 | 6.0 | 0.01 | 0.01 | 0.01 | 91 | 1047.1 |
| 20260508033233 | 49 | 270 | 3.0 | 6.0 | 0.01 | 0.01 | 0.01 | 91 | 1047.2 |
| 20260508033132 | 49 | 270 | 2.0 | 6.0 | 0.01 | 0.01 | 0.01 | 91 | 1047.1 |
| 20260508033033 | 49 | 270 | 2.0 | 6.0 | 0.01 | 0.01 | 0.01 | 91 | 1047.1 |
| 20260508032934 | 49 | 270 | 2.0 | 6.0 | 0.01 | 0.01 | 0.01 | 91 | 1047.2 |
| 20260508032830 | 49 | 270 | 2.0 | 6.0 | 0.01 | 0.01 | 0.01 | 91 | 1047.2 |
| 20260508032730 | 49 | 270 | 2.0 | 6.0 | 0.01 | 0.01 | 0.01 | 91 | 1047.2 |
| 20260508032708 | 49 | 270 | 2.0 | 4.0 | 0.01 | 0.01 | 0.01 | 91 | 1047.2 |
| 20260508032700 | 49 | 270 | 2.0 | 4.0 | 0.01 | 0.01 | 0.01 | 91 | 1047.2 |
| 20260508032432 | 49 | 270 | 2.0 | 4.0 | 0.01 | 0.01 | 0.01 | 91 | 1047.2 |
| 20260508032327 | 49 | 270 | 2.0 | 4.0 | 0.01 | 0.01 | 0.01 | 91 | 1047.2 |
| 20260508032225 | 49 | 270 | 2.0 | 4.0 | 0.01 | 0.01 | 0.01 | 91 | 1047.2 |
| 20260508032124 | 49 | 270 | 2.0 | 4.0 | 0.01 | 0.01 | 0.01 | 91 | 1047.3 |
| 20260508032028 | 49 | 270 | 2.0 | 4.0 | 0.01 | 0.01 | 0.00 | 90 | 1047.2 |
| 20260508031935 | 49 | 270 | 2.0 | 4.0 | 0.01 | 0.01 | 0.00 | 90 | 1047.2 |
| 20260508031924 | 49 | 270 | 2.0 | 4.0 | 0.00 | 0.00 | 0.00 | 90 | 1047.2 |
| 20260508031820 | 49 | 270 | 2.0 | 4.0 | 0.00 | 0.00 | 0.00 | 90 | 1047.2 |
| 20260508031719 | 49 | 270 | 2.0 | 4.0 | 0.00 | 0.00 | 0.00 | 90 | 1047.3 |
| 20260508031619 | 49 | 270 | 2.0 | 4.0 | 0.00 | 0.00 | 0.00 | 90 | 1047.2 |
| 20260508031558 | 49 | 270 | 2.0 | 4.0 | 0.00 | 0.00 | 0.00 | 90 | 1047.3 |
| 20260508031540 | 49 | 270 | 2.0 | 4.0 | 0.00 | 0.00 | 0.00 | 90 | 1047.2 |
| 20260508031533 | 49 | 270 | 2.0 | 4.0 | 0.00 | 0.00 | 0.00 | 90 | 1047.3 |
| 20260508031525 | 49 | 270 | 2.0 | 4.0 | 0.00 | 0.00 | 0.00 | 90 | 1047.3 |
| 20260508031516 | 49 | 270 | 2.0 | 4.0 | 0.00 | 0.00 | 0.00 | 90 | 1047.3 |
| 20260508031029 | 49 | 270 | 2.0 | 3.0 | 0.00 | 0.00 | 0.00 | 91 | 1047.3 |
| 20260508031009 | 50 | 270 | 2.0 | 3.0 | 0.00 | 0.00 | 0.00 | 90 | 1047.3 |
| 20260508030741 | 50 | 270 | 2.0 | 4.0 | 0.00 | 0.00 | 0.00 | 90 | 1047.3 |
| 20260508030729 | 50 | 270 | 2.0 | 4.0 | 0.00 | 0.00 | 0.00 | 90 | 1047.3 |
| 20260508030708 | 50 | 270 | 2.0 | 4.0 | 0.00 | 0.00 | 0.00 | 90 | 1047.4 |
| 20260508030700 | 50 | 270 | 2.0 | 4.0 | 0.00 | 0.00 | 0.00 | 90 | 1047.3 |
| 20260508030435 | 50 | 270 | 2.0 | 4.0 | 0.00 | 0.00 | 0.00 | 90 | 1047.3 |
| 20260508030424 | 50 | 270 | 2.0 | 4.0 | 0.00 | 0.00 | 0.00 | 90 | 1047.3 |
| 20260508030417 | 50 | 270 | 2.0 | 4.0 | 0.00 | 0.00 | 0.00 | 90 | 1047.4 |
| 20260508030404 | 50 | 270 | 2.0 | 4.0 | 0.00 | 0.00 | 0.00 | 90 | 1047.4 |
| 20260508030356 | 50 | 270 | 2.0 | 4.0 | 0.00 | 0.00 | 0.00 | 90 | 1047.3 |
| 20260508030348 | 50 | 270 | 2.0 | 4.0 | 0.00 | 0.00 | 0.00 | 90 | 1047.3 |
| 20260508030340 | 50 | 270 | 1.0 | 3.0 | 0.00 | 0.00 | 0.00 | 90 | 1047.3 |
| 20260508025856 | 50 | 270 | 1.0 | 3.0 | 0.00 | 0.00 | 0.00 | 90 | 1047.4 |
| 20260508025148 | 50 | 270 | 2.0 | 4.0 | 0.00 | 0.00 | 0.00 | 90 | 1047.3 |
| 20260508024850 | 50 | 270 | 2.0 | 4.0 | 0.00 | 0.00 | 0.00 | 90 | 1047.4 |
| 20260508024751 | 50 | 270 | 2.0 | 4.0 | 0.00 | 0.00 | 0.00 | 90 | 1047.3 |
| 20260508024650 | 50 | 270 | 2.0 | 4.0 | 0.00 | 0.00 | 0.00 | 90 | 1047.3 |
| 20260508024551 | 50 | 270 | 2.0 | 4.0 | 0.00 | 0.00 | 0.00 | 90 | 1047.3 |
| 20260508024436 | 50 | 270 | 2.0 | 4.0 | 0.00 | 0.00 | 0.00 | 90 | 1047.3 |
| 20260508024416 | 50 | 270 | 2.0 | 4.0 | 0.00 | 0.00 | 0.00 | 90 | 1047.3 |
| 20260508024408 | 50 | 270 | 2.0 | 4.0 | 0.00 | 0.00 | 0.00 | 90 | 1047.3 |
| 20260508024120 | 50 | 272 | 1.0 | 4.0 | 0.00 | 0.00 | 0.00 | 91 | 1047.3 |
| 20260508024056 | 50 | 271 | 1.0 | 4.0 | 0.00 | 0.00 | 0.00 | 91 | 1047.4 |
| 20260508024048 | 50 | 271 | 1.0 | 4.0 | 0.00 | 0.00 | 0.00 | 91 | 1047.3 |
| 20260508024034 | 50 | 272 | 1.0 | 3.0 | 0.00 | 0.00 | 0.00 | 91 | 1047.3 |
| 20260508023808 | 50 | 272 | 1.0 | 3.0 | 0.00 | 0.00 | 0.00 | 91 | 1047.3 |
| 20260508023756 | 50 | 272 | 1.0 | 3.0 | 0.00 | 0.00 | 0.00 | 91 | 1047.3 |
| 20260508023741 | 50 | 272 | 1.0 | 2.0 | 0.00 | 0.00 | 0.00 | 91 | 1047.3 |
| 20260508023723 | 50 | 272 | 1.0 | 2.0 | 0.00 | 0.00 | 0.00 | 91 | 1047.4 |
| 20260508023456 | 50 | 272 | 1.0 | 3.0 | 0.00 | 0.00 | 0.00 | 91 | 1047.4 |
| 20260508023217 | 50 | 272 | 1.0 | 3.0 | 0.00 | 0.00 | 0.00 | 90 | 1047.3 |
| 20260508022638 | 50 | 271 | 1.0 | 3.0 | 0.00 | 0.00 | 0.00 | 91 | 1047.4 |
| 20260508022539 | 50 | 272 | 1.0 | 3.0 | 0.00 | 0.00 | 0.00 | 91 | 1047.4 |
| 20260508022435 | 50 | 272 | 1.0 | 3.0 | 0.00 | 0.00 | 0.00 | 91 | 1047.4 |
| 20260508022422 | 50 | 272 | 1.0 | 3.0 | 0.00 | 0.00 | 0.00 | 91 | 1047.4 |
| 20260508022411 | 50 | 272 | 1.0 | 3.0 | 0.00 | 0.00 | 0.00 | 91 | 1047.5 |
| 20260508022142 | 50 | 272 | 1.0 | 3.0 | 0.00 | 0.00 | 0.00 | 91 | 1047.4 |
| 20260508022123 | 50 | 271 | 1.0 | 3.0 | 0.00 | 0.00 | 0.00 | 91 | 1047.5 |
| 20260508022110 | 50 | 272 | 1.0 | 3.0 | 0.00 | 0.00 | 0.00 | 91 | 1047.5 |
| 20260508021530 | 51 | 272 | 1.0 | 3.0 | 0.00 | 0.00 | 0.00 | 91 | 1047.5 |
| 20260508021433 | 51 | 272 | 1.0 | 3.0 | 0.00 | 0.00 | 0.00 | 91 | 1047.5 |
| 20260508021330 | 51 | 272 | 1.0 | 3.0 | 0.00 | 0.00 | 0.00 | 91 | 1047.5 |
| 20260508021230 | 51 | 272 | 1.0 | 3.0 | 0.00 | 0.00 | 0.00 | 91 | 1047.5 |
| 20260508021130 | 51 | 272 | 1.0 | 3.0 | 0.00 | 0.00 | 0.00 | 91 | 1047.5 |
| 20260508021030 | 51 | 272 | 1.0 | 3.0 | 0.00 | 0.00 | 0.00 | 90 | 1047.5 |
| 20260508020934 | 51 | 272 | 1.0 | 3.0 | 0.00 | 0.00 | 0.00 | 90 | 1047.5 |
| 20260508020831 | 51 | 272 | 1.0 | 3.0 | 0.00 | 0.00 | 0.00 | 90 | 1047.5 |
| 20260508020821 | 51 | 272 | 1.0 | 3.0 | 0.00 | 0.00 | 0.00 | 90 | 1047.5 |
| 20260508020815 | 51 | 272 | 2.0 | 3.0 | 0.00 | 0.00 | 0.00 | 90 | 1047.5 |
| 20260508020807 | 51 | 272 | 2.0 | 3.0 | 0.00 | 0.00 | 0.00 | 90 | 1047.5 |
| 20260508020747 | 51 | 272 | 2.0 | 3.0 | 0.00 | 0.00 | 0.00 | 90 | 1047.5 |
| 20260508020733 | 51 | 272 | 2.0 | 3.0 | 0.00 | 0.00 | 0.00 | 90 | 1047.5 |
| 20260508015925 | 51 | 272 | 2.0 | 3.0 | 0.00 | 0.00 | 0.00 | 90 | 1047.6 |
| 20260508015824 | 51 | 272 | 1.0 | 6.0 | 0.00 | 0.00 | 0.00 | 90 | 1047.5 |
| 20260508015725 | 51 | 272 | 1.0 | 6.0 | 0.00 | 0.00 | 0.00 | 90 | 1047.6 |
| 20260508015622 | 51 | 272 | 1.0 | 6.0 | 0.00 | 0.00 | 0.00 | 90 | 1047.6 |
| 20260508015606 | 51 | 272 | 1.0 | 6.0 | 0.00 | 0.00 | 0.00 | 90 | 1047.6 |
| 20260508015545 | 51 | 272 | 1.0 | 6.0 | 0.00 | 0.00 | 0.00 | 90 | 1047.6 |
| 20260508015218 | 51 | 272 | 1.0 | 6.0 | 0.00 | 0.00 | 0.00 | 90 | 1047.7 |
| 20260508015116 | 51 | 272 | 2.0 | 6.0 | 0.00 | 0.00 | 0.00 | 90 | 1047.6 |
| 20260508015012 | 51 | 272 | 2.0 | 6.0 | 0.00 | 0.00 | 0.00 | 90 | 1047.7 |
| 20260508014912 | 51 | 271 | 2.0 | 4.0 | 0.00 | 0.00 | 0.00 | 90 | 1047.7 |
| 20260508014814 | 51 | 270 | 2.0 | 6.0 | 0.00 | 0.00 | 0.00 | 90 | 1047.7 |
| 20260508014713 | 51 | 271 | 2.0 | 6.0 | 0.00 | 0.00 | 0.00 | 90 | 1047.7 |
| 20260508014612 | 51 | 271 | 2.0 | 6.0 | 0.00 | 0.00 | 0.00 | 90 | 1047.7 |
| 20260508014510 | 51 | 270 | 2.0 | 6.0 | 0.00 | 0.00 | 0.00 | 90 | 1047.7 |
| 20260508014410 | 51 | 271 | 2.0 | 6.0 | 0.00 | 0.00 | 0.00 | 90 | 1047.8 |
| 20260508014314 | 51 | 271 | 2.0 | 6.0 | 0.00 | 0.00 | 0.00 | 90 | 1047.8 |
| 20260508014211 | 51 | 271 | 2.0 | 6.0 | 0.00 | 0.00 | 0.00 | 90 | 1047.7 |
| 20260508014116 | 51 | 271 | 2.0 | 6.0 | 0.00 | 0.00 | 0.00 | 90 | 1047.8 |
| 20260508014008 | 51 | 271 | 2.0 | 6.0 | 0.00 | 0.00 | 0.00 | 90 | 1047.8 |
| 20260508013932 | 51 | 271 | 2.0 | 6.0 | 0.00 | 0.00 | 0.00 | 90 | 1047.7 |
| 20260508013909 | 51 | 270 | 2.0 | 6.0 | 0.00 | 0.00 | 0.00 | 90 | 1047.7 |
| 20260508013807 | 51 | 271 | 2.0 | 4.0 | 0.00 | 0.00 | 0.00 | 90 | 1047.7 |
| 20260508013736 | 51 | 271 | 2.0 | 4.0 | 0.00 | 0.00 | 0.00 | 90 | 1047.7 |
| 20260508013728 | 51 | 271 | 2.0 | 4.0 | 0.00 | 0.00 | 0.00 | 90 | 1047.7 |
| 20260508013433 | 51 | 270 | 2.0 | 4.0 | 0.00 | 0.00 | 0.00 | 90 | 1047.7 |
| 20260508013413 | 51 | 271 | 2.0 | 4.0 | 0.00 | 0.00 | 0.00 | 90 | 1047.7 |
| 20260508013310 | 51 | 270 | 2.0 | 4.0 | 0.00 | 0.00 | 0.00 | 90 | 1047.7 |
| 20260508013203 | 51 | 271 | 2.0 | 4.0 | 0.00 | 0.00 | 0.00 | 90 | 1047.7 |
| 20260508013104 | 51 | 271 | 2.0 | 4.0 | 0.00 | 0.00 | 0.00 | 90 | 1047.8 |
| 20260508013002 | 51 | 271 | 1.0 | 4.0 | 0.00 | 0.00 | 0.00 | 90 | 1047.8 |
| 20260508012934 | 51 | 272 | 1.0 | 4.0 | 0.00 | 0.00 | 0.00 | 90 | 1047.8 |
| 20260508012903 | 51 | 271 | 1.0 | 4.0 | 0.00 | 0.00 | 0.00 | 90 | 1047.8 |
| 20260508012802 | 51 | 271 | 2.0 | 4.0 | 0.00 | 0.00 | 0.00 | 90 | 1047.9 |
| 20260508012703 | 51 | 271 | 2.0 | 4.0 | 0.00 | 0.00 | 0.00 | 90 | 1047.8 |
| 20260508012623 | 51 | 271 | 1.0 | 4.0 | 0.00 | 0.00 | 0.00 | 90 | 1047.9 |
| 20260508012615 | 51 | 272 | 1.0 | 4.0 | 0.00 | 0.00 | 0.00 | 90 | 1047.9 |
| 20260508012603 | 51 | 271 | 1.0 | 4.0 | 0.00 | 0.00 | 0.00 | 90 | 1047.9 |
| 20260508012552 | 52 | 271 | 1.0 | 4.0 | 0.00 | 0.00 | 0.00 | 90 | 1047.9 |
| 20260508012542 | 52 | 271 | 1.0 | 4.0 | 0.00 | 0.00 | 0.00 | 90 | 1047.9 |
| 20260508012002 | 52 | 271 | 1.0 | 3.0 | 0.00 | 0.00 | 0.00 | 90 | 1047.9 |
| 20260508011904 | 52 | 271 | 1.0 | 3.0 | 0.00 | 0.00 | 0.00 | 90 | 1048.0 |
| 20260508011802 | 52 | 271 | 1.0 | 3.0 | 0.00 | 0.00 | 0.00 | 90 | 1048.0 |
| 20260508011751 | 52 | 271 | 1.0 | 3.0 | 0.00 | 0.00 | 0.00 | 90 | 1048.0 |
| 20260508011743 | 52 | 271 | 2.0 | 3.0 | 0.00 | 0.00 | 0.00 | 90 | 1048.0 |
| 20260508011731 | 52 | 271 | 2.0 | 3.0 | 0.00 | 0.00 | 0.00 | 90 | 1048.0 |
| 20260508011504 | 52 | 271 | 2.0 | 3.0 | 0.00 | 0.00 | 0.00 | 90 | 1048.0 |
| 20260508011455 | 52 | 272 | 2.0 | 3.0 | 0.00 | 0.00 | 0.00 | 90 | 1048.1 |
| 20260508011447 | 52 | 271 | 2.0 | 4.0 | 0.00 | 0.00 | 0.00 | 90 | 1048.1 |
| 20260508011436 | 52 | 271 | 2.0 | 4.0 | 0.00 | 0.00 | 0.00 | 90 | 1048.0 |
| 20260508011423 | 52 | 271 | 2.0 | 4.0 | 0.00 | 0.00 | 0.00 | 90 | 1048.1 |
| 20260508011406 | 52 | 271 | 2.0 | 4.0 | 0.00 | 0.00 | 0.00 | 90 | 1048.1 |
| 20260508011144 | 52 | 272 | 2.0 | 4.0 | 0.00 | 0.00 | 0.00 | 90 | 1048.1 |
| 20260508011136 | 52 | 271 | 2.0 | 4.0 | 0.00 | 0.00 | 0.00 | 90 | 1048.1 |
| 20260508011123 | 52 | 271 | 2.0 | 4.0 | 0.00 | 0.00 | 0.00 | 90 | 1048.1 |
| 20260508011108 | 52 | 271 | 2.0 | 4.0 | 0.00 | 0.00 | 0.00 | 90 | 1048.1 |
| 20260508011044 | 52 | 271 | 2.0 | 4.0 | 0.00 | 0.00 | 0.00 | 90 | 1048.1 |
| 20260508010551 | 53 | 271 | 1.0 | 4.0 | 0.00 | 0.00 | 0.00 | 90 | 1048.1 |
| 20260508010543 | 53 | 271 | 2.0 | 4.0 | 0.00 | 0.00 | 0.00 | 90 | 1048.1 |
| 20260508005834 | 53 | 272 | 2.0 | 6.0 | 0.00 | 0.00 | 0.00 | 90 | 1048.1 |
| 20260508005606 | 53 | 271 | 2.0 | 6.0 | 0.00 | 0.00 | 0.00 | 90 | 1048.2 |
| 20260508005550 | 53 | 271 | 2.0 | 6.0 | 0.00 | 0.00 | 0.00 | 90 | 1048.2 |
| 20260508005326 | 53 | 271 | 2.0 | 6.0 | 0.00 | 0.00 | 0.00 | 90 | 1048.2 |
| 20260508005056 | 53 | 271 | 2.0 | 6.0 | 0.00 | 0.00 | 0.00 | 90 | 1048.2 |
| 20260508005048 | 53 | 271 | 2.0 | 7.0 | 0.00 | 0.00 | 0.00 | 90 | 1048.2 |
| 20260508005035 | 53 | 271 | 2.0 | 7.0 | 0.00 | 0.00 | 0.00 | 90 | 1048.2 |
| 20260508004811 | 53 | 266 | 2.0 | 7.0 | 0.00 | 0.00 | 0.00 | 90 | 1048.2 |
| 20260508004524 | 53 | 269 | 2.0 | 7.0 | 0.00 | 0.00 | 0.00 | 90 | 1048.2 |
| 20260508004517 | 53 | 268 | 2.0 | 7.0 | 0.00 | 0.00 | 0.00 | 90 | 1048.2 |
| 20260508004506 | 53 | 269 | 2.0 | 7.0 | 0.00 | 0.00 | 0.00 | 90 | 1048.2 |
| 20260508004210 | 53 | 269 | 2.0 | 7.0 | 0.00 | 0.00 | 0.00 | 90 | 1048.2 |
| 20260508004203 | 53 | 269 | 1.0 | 7.0 | 0.00 | 0.00 | 0.00 | 90 | 1048.2 |
| 20260508003931 | 53 | 292 | 1.0 | 5.0 | 0.00 | 0.00 | 0.00 | 90 | 1048.2 |
| 20260508003838 | 53 | 292 | 1.0 | 5.0 | 0.00 | 0.00 | 0.00 | 90 | 1048.2 |
| 20260508003822 | 53 | 292 | 1.0 | 5.0 | 0.00 | 0.00 | 0.00 | 90 | 1048.1 |
| 20260508003815 | 53 | 291 | 1.0 | 5.0 | 0.00 | 0.00 | 0.00 | 90 | 1048.2 |
| 20260508003754 | 53 | 297 | 1.0 | 4.0 | 0.00 | 0.00 | 0.00 | 90 | 1048.1 |
| 20260508003744 | 53 | 297 | 1.0 | 4.0 | 0.00 | 0.00 | 0.00 | 90 | 1048.2 |
| 20260508003517 | 53 | 223 | 1.0 | 3.0 | 0.00 | 0.00 | 0.00 | 90 | 1048.2 |
| 20260508003136 | 53 | 223 | 1.0 | 4.0 | 0.00 | 0.00 | 0.00 | 90 | 1048.3 |
| 20260508003119 | 53 | 222 | 1.0 | 4.0 | 0.00 | 0.00 | 0.00 | 90 | 1048.2 |
| 20260508003108 | 53 | 223 | 1.0 | 4.0 | 0.00 | 0.00 | 0.00 | 90 | 1048.3 |
| 20260508003102 | 53 | 222 | 1.0 | 4.0 | 0.00 | 0.00 | 0.00 | 90 | 1048.3 |
| 20260508003046 | 53 | 223 | 1.0 | 4.0 | 0.00 | 0.00 | 0.00 | 90 | 1048.3 |
| 20260508003037 | 53 | 223 | 1.0 | 4.0 | 0.00 | 0.00 | 0.00 | 90 | 1048.3 |
| 20260508003032 | 53 | 223 | 1.0 | 4.0 | 0.00 | 0.00 | 0.00 | 90 | 1048.3 |
| 20260508003022 | 53 | 223 | 1.0 | 4.0 | 0.00 | 0.00 | 0.00 | 90 | 1048.3 |
| 20260508002754 | 53 | 223 | 1.0 | 4.0 | 0.00 | 0.00 | 0.00 | 90 | 1048.3 |
| 20260508002519 | 53 | 222 | 1.0 | 4.0 | 0.00 | 0.00 | 0.00 | 90 | 1048.3 |
| 20260508002510 | 53 | 222 | 1.0 | 4.0 | 0.00 | 0.00 | 0.00 | 90 | 1048.3 |
| 20260508002225 | 53 | 222 | 1.0 | 4.0 | 0.00 | 0.00 | 0.00 | 90 | 1048.3 |
| 20260508002217 | 53 | 222 | 1.0 | 4.0 | 0.00 | 0.00 | 0.00 | 90 | 1048.3 |
| 20260508001950 | 53 | 222 | 1.0 | 4.0 | 0.00 | 0.00 | 0.00 | 90 | 1048.3 |
| 20260508001943 | 53 | 222 | 1.0 | 4.0 | 0.00 | 0.00 | 0.00 | 90 | 1048.3 |
| 20260508001927 | 53 | 222 | 1.0 | 4.0 | 0.00 | 0.00 | 0.00 | 90 | 1048.3 |
| 20260508001918 | 53 | 222 | 1.0 | 4.0 | 0.00 | 0.00 | 0.00 | 90 | 1048.3 |
| 20260508001910 | 53 | 214 | 2.0 | 4.0 | 0.00 | 0.00 | 0.00 | 90 | 1048.3 |
| 20260508001901 | 53 | 214 | 1.0 | 4.0 | 0.00 | 0.00 | 0.00 | 90 | 1048.4 |
| 20260508000934 | 53 | 215 | 1.0 | 4.0 | 0.00 | 0.00 | 0.00 | 90 | 1048.4 |
| 20260508000712 | 53 | 214 | 1.0 | 4.0 | 0.00 | 0.00 | 0.00 | 90 | 1048.3 |
| 20260508000700 | 53 | 214 | 1.0 | 4.0 | 0.00 | 0.00 | 0.00 | 90 | 1048.4 |
| 20260508000653 | 53 | 215 | 1.0 | 4.0 | 0.00 | 0.00 | 0.00 | 90 | 1048.4 |
| 20260508000644 | 53 | 214 | 1.0 | 4.0 | 0.00 | 0.00 | 0.00 | 90 | 1048.4 |
| 20260508000404 | 53 | 215 | 1.0 | 4.0 | 0.00 | 0.00 | 0.00 | 90 | 1048.4 |
| 20260508000357 | 53 | 215 | 1.0 | 4.0 | 0.00 | 0.00 | 0.00 | 90 | 1048.4 |
| 20260507235812 | 53 | 215 | 2.0 | 4.0 | 0.00 | 0.00 | 0.00 | 90 | 1048.4 |
| 20260507235712 | 53 | 215 | 2.0 | 4.0 | 0.00 | 0.00 | 0.00 | 90 | 1048.4 |
| 20260507235610 | 53 | 214 | 2.0 | 4.0 | 0.00 | 0.00 | 0.00 | 90 | 1048.4 |
| 20260507235555 | 53 | 215 | 2.0 | 4.0 | 0.00 | 0.00 | 0.00 | 90 | 1048.4 |
| 20260507235534 | 53 | 215 | 2.0 | 4.0 | 0.00 | 0.00 | 0.00 | 90 | 1048.5 |
| 20260507235207 | 53 | 215 | 2.0 | 4.0 | 0.00 | 0.00 | 0.00 | 90 | 1048.5 |
| 20260507235103 | 53 | 215 | 2.0 | 4.0 | 0.00 | 0.00 | 0.00 | 90 | 1048.5 |
| 20260507235004 | 53 | 215 | 2.0 | 4.0 | 0.00 | 0.00 | 0.00 | 90 | 1048.5 |
| 20260507234933 | 53 | 215 | 2.0 | 4.0 | 0.00 | 0.00 | 0.00 | 90 | 1048.5 |
| 20260507234905 | 53 | 214 | 2.0 | 4.0 | 0.00 | 0.00 | 0.00 | 90 | 1048.5 |
| 20260507234803 | 53 | 214 | 2.0 | 4.0 | 0.00 | 0.00 | 0.00 | 90 | 1048.5 |
| 20260507234703 | 53 | 215 | 2.0 | 4.0 | 0.00 | 0.00 | 0.00 | 90 | 1048.5 |
| 20260507234604 | 53 | 215 | 2.0 | 4.0 | 0.00 | 0.00 | 0.00 | 90 | 1048.5 |
| 20260507234503 | 53 | 215 | 2.0 | 4.0 | 0.00 | 0.00 | 0.00 | 90 | 1048.5 |
| 20260507234433 | 53 | 215 | 2.0 | 4.0 | 0.00 | 0.00 | 0.00 | 90 | 1048.5 |
| 20260507234404 | 53 | 214 | 2.0 | 4.0 | 0.00 | 0.00 | 0.00 | 90 | 1048.5 |
| 20260507234306 | 53 | 215 | 2.0 | 4.0 | 0.00 | 0.00 | 0.00 | 90 | 1048.5 |
| 20260507234215 | 53 | 215 | 2.0 | 4.0 | 0.00 | 0.00 | 0.00 | 90 | 1048.5 |
| 20260507234206 | 53 | 214 | 2.0 | 4.0 | 0.00 | 0.00 | 0.00 | 90 | 1048.5 |
| 20260507234154 | 53 | 215 | 2.0 | 4.0 | 0.00 | 0.00 | 0.00 | 90 | 1048.5 |
| 20260507233905 | 53 | 215 | 2.0 | 4.0 | 0.00 | 0.00 | 0.00 | 90 | 1048.5 |
| 20260507233803 | 53 | 215 | 2.0 | 4.0 | 0.00 | 0.00 | 0.00 | 90 | 1048.6 |
| 20260507233706 | 53 | 215 | 2.0 | 4.0 | 0.00 | 0.00 | 0.00 | 90 | 1048.6 |
| 20260507233604 | 53 | 215 | 2.0 | 4.0 | 0.00 | 0.00 | 0.00 | 90 | 1048.6 |
| 20260507233503 | 53 | 214 | 2.0 | 4.0 | 0.00 | 0.00 | 0.00 | 90 | 1048.6 |
| 20260507233434 | 53 | 215 | 2.0 | 4.0 | 0.00 | 0.00 | 0.00 | 90 | 1048.6 |
| 20260507233404 | 53 | 214 | 2.0 | 4.0 | 0.00 | 0.00 | 0.00 | 90 | 1048.6 |
| 20260507233303 | 53 | 215 | 2.0 | 4.0 | 0.00 | 0.00 | 0.00 | 90 | 1048.7 |
| 20260507233210 | 53 | 215 | 2.0 | 3.0 | 0.00 | 0.00 | 0.00 | 90 | 1048.7 |
| 20260507233104 | 53 | 214 | 2.0 | 3.0 | 0.00 | 0.00 | 0.00 | 90 | 1048.7 |
| 20260507233003 | 53 | 214 | 2.0 | 3.0 | 0.00 | 0.00 | 0.00 | 90 | 1048.7 |
| 20260507232905 | 53 | 214 | 1.0 | 3.0 | 0.00 | 0.00 | 0.00 | 90 | 1048.7 |
| 20260507232803 | 53 | 214 | 1.0 | 3.0 | 0.00 | 0.00 | 0.00 | 90 | 1048.7 |
| 20260507232703 | 53 | 214 | 1.0 | 3.0 | 0.00 | 0.00 | 0.00 | 90 | 1048.8 |
| 20260507232611 | 53 | 215 | 1.0 | 3.0 | 0.00 | 0.00 | 0.00 | 90 | 1048.8 |
| 20260507232503 | 53 | 215 | 1.0 | 3.0 | 0.00 | 0.00 | 0.00 | 90 | 1048.8 |
| 20260507232432 | 53 | 215 | 1.0 | 3.0 | 0.00 | 0.00 | 0.00 | 90 | 1048.8 |
| 20260507232405 | 53 | 214 | 1.0 | 3.0 | 0.00 | 0.00 | 0.00 | 90 | 1048.8 |
| 20260507232306 | 53 | 214 | 2.0 | 3.0 | 0.00 | 0.00 | 0.00 | 90 | 1048.8 |
| 20260507232203 | 53 | 215 | 2.0 | 3.0 | 0.00 | 0.00 | 0.00 | 90 | 1048.8 |
| 20260507232101 | 53 | 215 | 1.0 | 3.0 | 0.00 | 0.00 | 0.00 | 90 | 1048.8 |
| 20260507231932 | 54 | 215 | 1.0 | 3.0 | 0.00 | 0.00 | 0.00 | 90 | 1048.8 |
| 20260507231859 | 54 | 214 | 1.0 | 3.0 | 0.00 | 0.00 | 0.00 | 90 | 1048.8 |
| 20260507231759 | 54 | 215 | 1.0 | 3.0 | 0.00 | 0.00 | 0.00 | 90 | 1048.8 |
| 20260507231657 | 54 | 215 | 1.0 | 3.0 | 0.00 | 0.00 | 0.00 | 90 | 1048.8 |
| 20260507231551 | 54 | 214 | 1.0 | 3.0 | 0.00 | 0.00 | 0.00 | 90 | 1048.8 |
| 20260507231451 | 54 | 215 | 1.0 | 3.0 | 0.00 | 0.00 | 0.00 | 90 | 1048.8 |
| 20260507231431 | 54 | 214 | 1.0 | 3.0 | 0.00 | 0.00 | 0.00 | 90 | 1048.8 |
| 20260507231352 | 54 | 215 | 1.0 | 3.0 | 0.00 | 0.00 | 0.00 | 90 | 1048.8 |
| 20260507231251 | 54 | 215 | 1.0 | 3.0 | 0.00 | 0.00 | 0.00 | 90 | 1048.8 |
| 20260507231151 | 54 | 215 | 1.0 | 3.0 | 0.00 | 0.00 | 0.00 | 90 | 1048.8 |
| 20260507231126 | 54 | 215 | 2.0 | 3.0 | 0.00 | 0.00 | 0.00 | 90 | 1048.8 |
| 20260507231105 | 54 | 215 | 2.0 | 3.0 | 0.00 | 0.00 | 0.00 | 90 | 1049.0 |
| 20260507230741 | 54 | 214 | 2.0 | 3.0 | 0.00 | 0.00 | 0.00 | 90 | 1049.0 |
| 20260507230641 | 54 | 215 | 2.0 | 3.0 | 0.00 | 0.00 | 0.00 | 90 | 1049.0 |
| 20260507230620 | 54 | 215 | 2.0 | 3.0 | 0.00 | 0.00 | 0.00 | 90 | 1049.0 |
| 20260507230601 | 54 | 215 | 2.0 | 3.0 | 0.00 | 0.00 | 0.00 | 90 | 1049.1 |
| 20260507230238 | 54 | 215 | 2.0 | 3.0 | 0.00 | 0.00 | 0.00 | 90 | 1049.0 |
| 20260507230224 | 54 | 215 | 2.0 | 3.0 | 0.00 | 0.00 | 0.00 | 90 | 1049.0 |
| 20260507230215 | 54 | 214 | 2.0 | 3.0 | 0.00 | 0.00 | 0.00 | 90 | 1049.0 |
| 20260507225931 | 54 | 214 | 2.0 | 3.0 | 0.00 | 0.00 | 0.00 | 90 | 1049.0 |
| 20260507225832 | 54 | 215 | 2.0 | 3.0 | 0.00 | 0.00 | 0.00 | 90 | 1049.0 |
| 20260507225803 | 54 | 214 | 2.0 | 3.0 | 0.00 | 0.00 | 0.00 | 90 | 1049.0 |
| 20260507225755 | 54 | 215 | 2.0 | 3.0 | 0.00 | 0.00 | 0.00 | 90 | 1049.0 |
| 20260507225436 | 54 | 215 | 2.0 | 3.0 | 0.00 | 0.00 | 0.00 | 90 | 1049.0 |
| 20260507225331 | 54 | 215 | 2.0 | 3.0 | 0.00 | 0.00 | 0.00 | 90 | 1049.0 |
| 20260507225232 | 54 | 214 | 1.0 | 3.0 | 0.00 | 0.00 | 0.00 | 90 | 1049.0 |
| 20260507225131 | 54 | 215 | 1.0 | 3.0 | 0.00 | 0.00 | 0.00 | 90 | 1049.0 |
| 20260507225032 | 54 | 215 | 1.0 | 3.0 | 0.00 | 0.00 | 0.00 | 90 | 1049.0 |
| 20260507224936 | 54 | 215 | 1.0 | 3.0 | 0.00 | 0.00 | 0.00 | 90 | 1049.0 |
| 20260507224845 | 54 | 214 | 1.0 | 3.0 | 0.00 | 0.00 | 0.00 | 90 | 1049.0 |
| 20260507224839 | 54 | 214 | 1.0 | 2.0 | 0.00 | 0.00 | 0.00 | 90 | 1049.0 |
| 20260507224826 | 54 | 215 | 1.0 | 2.0 | 0.00 | 0.00 | 0.00 | 90 | 1049.0 |
| 20260507224555 | 54 | 215 | 1.0 | 2.0 | 0.00 | 0.00 | 0.00 | 90 | 1049.0 |
| 20260507224230 | 54 | 214 | 2.0 | 3.0 | 0.00 | 0.00 | 0.00 | 90 | 1049.0 |
| 20260507224130 | 54 | 215 | 2.0 | 3.0 | 0.00 | 0.00 | 0.00 | 90 | 1049.0 |
| 20260507224034 | 54 | 215 | 2.0 | 3.0 | 0.00 | 0.00 | 0.00 | 90 | 1049.0 |
| 20260507223933 | 54 | 215 | 2.0 | 3.0 | 0.00 | 0.00 | 0.00 | 90 | 1049.1 |
| 20260507223831 | 54 | 215 | 1.0 | 3.0 | 0.00 | 0.00 | 0.00 | 90 | 1049.1 |
| 20260507223808 | 54 | 215 | 1.0 | 3.0 | 0.00 | 0.00 | 0.00 | 90 | 1049.1 |
| 20260507223801 | 54 | 215 | 1.0 | 3.0 | 0.00 | 0.00 | 0.00 | 90 | 1049.1 |
| 20260507223747 | 54 | 215 | 1.0 | 3.0 | 0.00 | 0.00 | 0.00 | 90 | 1049.1 |
| 20260507223524 | 54 | 214 | 1.0 | 3.0 | 0.00 | 0.00 | 0.00 | 90 | 1049.1 |
| 20260507223511 | 54 | 215 | 1.0 | 2.0 | 0.00 | 0.00 | 0.00 | 90 | 1049.1 |
| 20260507223503 | 54 | 215 | 1.0 | 2.0 | 0.00 | 0.00 | 0.00 | 90 | 1049.1 |
| 20260507223455 | 54 | 214 | 1.0 | 2.0 | 0.00 | 0.00 | 0.00 | 90 | 1049.1 |
| 20260507223222 | 54 | 214 | 1.0 | 2.0 | 0.00 | 0.00 | 0.00 | 91 | 1049.1 |
| 20260507222958 | 54 | 215 | 1.0 | 2.0 | 0.00 | 0.00 | 0.00 | 91 | 1049.2 |
| 20260507222622 | 54 | 215 | 1.0 | 2.0 | 0.00 | 0.00 | 0.00 | 91 | 1049.2 |
| 20260507222522 | 54 | 215 | 1.0 | 2.0 | 0.00 | 0.00 | 0.00 | 91 | 1049.2 |
| 20260507222422 | 54 | 214 | 1.0 | 2.0 | 0.00 | 0.00 | 0.00 | 91 | 1049.2 |
| 20260507222403 | 54 | 215 | 1.0 | 2.0 | 0.00 | 0.00 | 0.00 | 90 | 1049.2 |
| 20260507222357 | 54 | 215 | 1.0 | 2.0 | 0.00 | 0.00 | 0.00 | 90 | 1049.2 |
| 20260507222344 | 54 | 214 | 1.0 | 2.0 | 0.00 | 0.00 | 0.00 | 90 | 1049.2 |
| 20260507222336 | 53 | 214 | 1.0 | 2.0 | 0.00 | 0.00 | 0.00 | 90 | 1049.3 |
| 20260507222102 | 53 | 215 | 1.0 | 2.0 | 0.00 | 0.00 | 0.00 | 90 | 1049.2 |
| 20260507222051 | 53 | 215 | 1.0 | 3.0 | 0.00 | 0.00 | 0.00 | 90 | 1049.2 |
| 20260507222042 | 53 | 214 | 1.0 | 3.0 | 0.00 | 0.00 | 0.00 | 90 | 1049.1 |
| 20260507221809 | 53 | 215 | 1.0 | 3.0 | 0.00 | 0.00 | 0.00 | 90 | 1049.2 |
| 20260507221758 | 54 | 214 | 1.0 | 3.0 | 0.00 | 0.00 | 0.00 | 90 | 1049.2 |
| 20260507221215 | 53 | 215 | 1.0 | 3.0 | 0.00 | 0.00 | 0.00 | 90 | 1049.2 |
| 20260507221116 | 54 | 215 | 1.0 | 3.0 | 0.00 | 0.00 | 0.00 | 90 | 1049.2 |
| 20260507221011 | 54 | 215 | 1.0 | 3.0 | 0.00 | 0.00 | 0.00 | 90 | 1049.1 |
| 20260507220908 | 54 | 215 | 1.0 | 3.0 | 0.00 | 0.00 | 0.00 | 90 | 1049.2 |
| 20260507220808 | 54 | 215 | 1.0 | 3.0 | 0.00 | 0.00 | 0.00 | 90 | 1049.1 |
| 20260507220708 | 54 | 214 | 1.0 | 3.0 | 0.00 | 0.00 | 0.00 | 90 | 1049.1 |
| 20260507220608 | 54 | 214 | 1.0 | 3.0 | 0.00 | 0.00 | 0.00 | 90 | 1049.1 |
| 20260507220506 | 54 | 214 | 1.0 | 3.0 | 0.00 | 0.00 | 0.00 | 90 | 1049.1 |
| 20260507220431 | 54 | 215 | 1.0 | 3.0 | 0.00 | 0.00 | 0.00 | 90 | 1049.1 |
| 20260507220410 | 54 | 214 | 1.0 | 3.0 | 0.00 | 0.00 | 0.00 | 90 | 1049.1 |
| 20260507220306 | 54 | 214 | 2.0 | 3.0 | 0.00 | 0.00 | 0.00 | 90 | 1049.1 |
| 20260507220206 | 54 | 214 | 2.0 | 3.0 | 0.00 | 0.00 | 0.00 | 90 | 1049.1 |
| 20260507220105 | 54 | 215 | 2.0 | 3.0 | 0.00 | 0.00 | 0.00 | 90 | 1049.1 |
| 20260507220008 | 54 | 215 | 2.0 | 3.0 | 0.00 | 0.00 | 0.00 | 90 | 1049.2 |
| 20260507215932 | 54 | 215 | 2.0 | 3.0 | 0.00 | 0.00 | 0.00 | 90 | 1049.2 |
| 20260507215905 | 54 | 214 | 2.0 | 3.0 | 0.00 | 0.00 | 0.00 | 90 | 1049.2 |
| 20260507215804 | 54 | 216 | 2.0 | 3.0 | 0.00 | 0.00 | 0.00 | 90 | 1049.2 |
| 20260507215703 | 54 | 215 | 2.0 | 3.0 | 0.00 | 0.00 | 0.00 | 90 | 1049.2 |
| 20260507215604 | 54 | 215 | 2.0 | 3.0 | 0.00 | 0.00 | 0.00 | 90 | 1049.2 |
| 20260507215504 | 54 | 214 | 2.0 | 3.0 | 0.00 | 0.00 | 0.00 | 90 | 1049.2 |
| 20260507215432 | 54 | 214 | 2.0 | 3.0 | 0.00 | 0.00 | 0.00 | 90 | 1049.2 |
| 20260507215405 | 54 | 215 | 2.0 | 3.0 | 0.00 | 0.00 | 0.00 | 90 | 1049.2 |
| 20260507215307 | 54 | 215 | 2.0 | 3.0 | 0.00 | 0.00 | 0.00 | 90 | 1049.2 |
| 20260507215202 | 54 | 215 | 2.0 | 3.0 | 0.00 | 0.00 | 0.00 | 90 | 1049.2 |
| 20260507215102 | 54 | 215 | 2.0 | 3.0 | 0.00 | 0.00 | 0.00 | 90 | 1049.3 |
| 20260507215002 | 54 | 214 | 2.0 | 3.0 | 0.00 | 0.00 | 0.00 | 90 | 1049.2 |
| 20260507214932 | 54 | 215 | 2.0 | 3.0 | 0.00 | 0.00 | 0.00 | 90 | 1049.2 |
| 20260507214900 | 54 | 215 | 2.0 | 3.0 | 0.00 | 0.00 | 0.00 | 90 | 1049.2 |
| 20260507214759 | 54 | 215 | 2.0 | 3.0 | 0.00 | 0.00 | 0.00 | 90 | 1049.3 |
| 20260507214659 | 54 | 215 | 2.0 | 3.0 | 0.00 | 0.00 | 0.00 | 90 | 1049.2 |
| 20260507214558 | 54 | 214 | 2.0 | 3.0 | 0.00 | 0.00 | 0.00 | 89 | 1049.3 |
| 20260507214458 | 54 | 215 | 2.0 | 3.0 | 0.00 | 0.00 | 0.00 | 89 | 1049.3 |
| 20260507214432 | 54 | 214 | 2.0 | 3.0 | 0.00 | 0.00 | 0.00 | 89 | 1049.3 |
| 20260507214356 | 54 | 215 | 2.0 | 3.0 | 0.00 | 0.00 | 0.00 | 89 | 1049.3 |
| 20260507214256 | 54 | 214 | 2.0 | 3.0 | 0.00 | 0.00 | 0.00 | 89 | 1049.3 |
| 20260507214249 | 54 | 215 | 2.0 | 3.0 | 0.00 | 0.00 | 0.00 | 89 | 1049.3 |
| 20260507214241 | 54 | 215 | 2.0 | 3.0 | 0.00 | 0.00 | 0.00 | 89 | 1049.3 |
| 20260507214233 | 54 | 215 | 2.0 | 3.0 | 0.00 | 0.00 | 0.00 | 89 | 1049.4 |
| 20260507214217 | 54 | 214 | 2.0 | 3.0 | 0.00 | 0.00 | 0.00 | 89 | 1049.3 |
| 20260507214209 | 54 | 214 | 2.0 | 3.0 | 0.00 | 0.00 | 0.00 | 89 | 1049.3 |
| 20260507214156 | 54 | 215 | 2.0 | 3.0 | 0.00 | 0.00 | 0.00 | 89 | 1049.3 |
| 20260507214146 | 54 | 214 | 2.0 | 3.0 | 0.00 | 0.00 | 0.00 | 89 | 1049.3 |
| 20260507214140 | 54 | 215 | 2.0 | 3.0 | 0.00 | 0.00 | 0.00 | 89 | 1049.3 |
| 20260507213655 | 54 | 214 | 2.0 | 3.0 | 0.00 | 0.00 | 0.00 | 89 | 1049.3 |
| 20260507213427 | 54 | 215 | 2.0 | 3.0 | 0.00 | 0.00 | 0.00 | 89 | 1049.3 |
| 20260507213155 | 54 | 214 | 2.0 | 3.0 | 0.00 | 0.00 | 0.00 | 89 | 1049.3 |
| 20260507212849 | 54 | 215 | 2.0 | 3.0 | 0.00 | 0.00 | 0.00 | 89 | 1049.3 |
| 20260507212816 | 54 | 214 | 2.0 | 3.0 | 0.00 | 0.00 | 0.00 | 89 | 1049.3 |
| 20260507212808 | 54 | 214 | 2.0 | 3.0 | 0.00 | 0.00 | 0.00 | 89 | 1049.3 |
| 20260507212757 | 54 | 215 | 2.0 | 3.0 | 0.00 | 0.00 | 0.00 | 89 | 1049.3 |
| 20260507212722 | 54 | 215 | 2.0 | 3.0 | 0.00 | 0.00 | 0.00 | 89 | 1049.3 |
| 20260507212453 | 54 | 215 | 2.0 | 3.0 | 0.00 | 0.00 | 0.00 | 89 | 1049.3 |
| 20260507212447 | 55 | 215 | 2.0 | 3.0 | 0.00 | 0.00 | 0.00 | 89 | 1049.3 |
| 20260507212438 | 55 | 215 | 1.0 | 3.0 | 0.00 | 0.00 | 0.00 | 89 | 1049.3 |
| 20260507212430 | 55 | 216 | 1.0 | 3.0 | 0.00 | 0.00 | 0.00 | 89 | 1049.3 |
| 20260507212202 | 55 | 215 | 1.0 | 3.0 | 0.00 | 0.00 | 0.00 | 89 | 1049.3 |
| 20260507211715 | 55 | 214 | 1.0 | 3.0 | 0.00 | 0.00 | 0.00 | 89 | 1049.2 |
| 20260507211437 | 55 | 215 | 1.0 | 4.0 | 0.00 | 0.00 | 0.00 | 89 | 1049.2 |
| 20260507211356 | 55 | 216 | 1.0 | 4.0 | 0.00 | 0.00 | 0.00 | 89 | 1049.2 |
| 20260507211345 | 55 | 215 | 2.0 | 4.0 | 0.00 | 0.00 | 0.00 | 89 | 1049.2 |
| 20260507211334 | 55 | 215 | 2.0 | 4.0 | 0.00 | 0.00 | 0.00 | 89 | 1049.2 |
| 20260507211101 | 55 | 215 | 2.0 | 4.0 | 0.00 | 0.00 | 0.00 | 89 | 1049.1 |
| 20260507210731 | 55 | 215 | 2.0 | 4.0 | 0.00 | 0.00 | 0.00 | 89 | 1049.1 |
| 20260507210631 | 55 | 215 | 2.0 | 4.0 | 0.00 | 0.00 | 0.00 | 88 | 1049.1 |
| 20260507210611 | 55 | 215 | 2.0 | 4.0 | 0.00 | 0.00 | 0.00 | 88 | 1049.1 |
| 20260507210555 | 55 | 214 | 2.0 | 4.0 | 0.00 | 0.00 | 0.00 | 88 | 1049.1 |
| 20260507210232 | 55 | 215 | 2.0 | 3.0 | 0.00 | 0.00 | 0.00 | 88 | 1049.1 |
| 20260507210131 | 55 | 213 | 2.0 | 3.0 | 0.00 | 0.00 | 0.00 | 88 | 1049.1 |
| 20260507210111 | 55 | 215 | 2.0 | 3.0 | 0.00 | 0.00 | 0.00 | 88 | 1049.1 |
| 20260507210056 | 55 | 214 | 2.0 | 3.0 | 0.00 | 0.00 | 0.00 | 88 | 1049.1 |
| 20260507210022 | 55 | 214 | 2.0 | 3.0 | 0.00 | 0.00 | 0.00 | 88 | 1049.1 |
| 20260507205754 | 55 | 215 | 2.0 | 3.0 | 0.00 | 0.00 | 0.00 | 88 | 1049.1 |
| 20260507205744 | 55 | 215 | 2.0 | 3.0 | 0.00 | 0.00 | 0.00 | 88 | 1049.1 |
| 20260507205717 | 55 | 214 | 2.0 | 3.0 | 0.00 | 0.00 | 0.00 | 88 | 1049.1 |
| 20260507205452 | 55 | 214 | 2.0 | 3.0 | 0.00 | 0.00 | 0.00 | 88 | 1049.1 |
| 20260507205220 | 55 | 215 | 2.0 | 3.0 | 0.00 | 0.00 | 0.00 | 88 | 1049.1 |
| 20260507205212 | 55 | 215 | 2.0 | 3.0 | 0.00 | 0.00 | 0.00 | 87 | 1049.1 |
| 20260507205151 | 56 | 214 | 2.0 | 3.0 | 0.00 | 0.00 | 0.00 | 87 | 1049.1 |
| 20260507204927 | 56 | 215 | 2.0 | 3.0 | 0.00 | 0.00 | 0.00 | 87 | 1049.1 |
| 20260507204918 | 56 | 215 | 2.0 | 3.0 | 0.00 | 0.00 | 0.00 | 87 | 1049.1 |
| 20260507204912 | 56 | 215 | 2.0 | 3.0 | 0.00 | 0.00 | 0.00 | 87 | 1049.1 |
| 20260507204332 | 56 | 214 | 2.0 | 3.0 | 0.00 | 0.00 | 0.00 | 87 | 1049.1 |
| 20260507204231 | 56 | 215 | 2.0 | 3.0 | 0.00 | 0.00 | 0.00 | 87 | 1049.1 |
| 20260507204132 | 56 | 215 | 2.0 | 3.0 | 0.00 | 0.00 | 0.00 | 87 | 1049.1 |
| 20260507204042 | 56 | 215 | 2.0 | 3.0 | 0.00 | 0.00 | 0.00 | 87 | 1049.1 |
| 20260507204023 | 56 | 215 | 2.0 | 3.0 | 0.00 | 0.00 | 0.00 | 87 | 1049.1 |
| 20260507203955 | 56 | 215 | 2.0 | 3.0 | 0.00 | 0.00 | 0.00 | 87 | 1049.0 |
| 20260507203632 | 56 | 215 | 2.0 | 3.0 | 0.00 | 0.00 | 0.00 | 87 | 1049.0 |
| 20260507203532 | 56 | 215 | 1.0 | 3.0 | 0.00 | 0.00 | 0.00 | 86 | 1049.0 |
| 20260507203435 | 56 | 215 | 1.0 | 3.0 | 0.00 | 0.00 | 0.00 | 86 | 1049.0 |
| 20260507203331 | 56 | 214 | 1.0 | 3.0 | 0.00 | 0.00 | 0.00 | 86 | 1049.0 |
| 20260507203232 | 56 | 215 | 1.0 | 2.0 | 0.00 | 0.00 | 0.00 | 86 | 1049.0 |
| 20260507203212 | 56 | 215 | 1.0 | 2.0 | 0.00 | 0.00 | 0.00 | 86 | 1049.0 |
| 20260507203201 | 57 | 215 | 1.0 | 2.0 | 0.00 | 0.00 | 0.00 | 86 | 1049.0 |
| 20260507202934 | 57 | 214 | 0.0 | 2.0 | 0.00 | 0.00 | 0.00 | 86 | 1049.0 |
| 20260507202831 | 57 | 215 | 0.0 | 2.0 | 0.00 | 0.00 | 0.00 | 86 | 1049.0 |
| 20260507202732 | 57 | 214 | 0.0 | 2.0 | 0.00 | 0.00 | 0.00 | 86 | 1049.0 |
| 20260507202632 | 57 | 215 | 0.0 | 2.0 | 0.00 | 0.00 | 0.00 | 86 | 1049.0 |
| 20260507202604 | 57 | 214 | 0.0 | 1.0 | 0.00 | 0.00 | 0.00 | 86 | 1049.0 |
| 20260507202547 | 57 | 214 | 0.0 | 0.0 | 0.00 | 0.00 | 0.00 | 86 | 1049.0 |
| 20260507202530 | 57 | 215 | 0.0 | 0.0 | 0.00 | 0.00 | 0.00 | 86 | 1049.0 |
| 20260507202243 | 57 | 215 | 0.0 | 0.0 | 0.00 | 0.00 | 0.00 | 85 | 1049.0 |
| 20260507202231 | 57 | 215 | 0.0 | 1.0 | 0.00 | 0.00 | 0.00 | 85 | 1049.0 |
| 20260507202214 | 57 | 215 | 0.0 | 1.0 | 0.00 | 0.00 | 0.00 | 86 | 1048.8 |
| 20260507201629 | 57 | 215 | 0.0 | 1.0 | 0.00 | 0.00 | 0.00 | 85 | 1048.8 |
| 20260507201621 | 57 | 214 | 0.0 | 1.0 | 0.00 | 0.00 | 0.00 | 85 | 1048.8 |
| 20260507201558 | 57 | 215 | 0.0 | 2.0 | 0.00 | 0.00 | 0.00 | 85 | 1048.7 |
| 20260507201331 | 57 | 215 | 1.0 | 2.0 | 0.00 | 0.00 | 0.00 | 85 | 1048.7 |
| 20260507201320 | 57 | 215 | 1.0 | 2.0 | 0.00 | 0.00 | 0.00 | 85 | 1048.7 |
| 20260507201310 | 58 | 214 | 1.0 | 2.0 | 0.00 | 0.00 | 0.00 | 85 | 1048.7 |
| 20260507201041 | 58 | 215 | 1.0 | 2.0 | 0.00 | 0.00 | 0.00 | 85 | 1048.6 |
| 20260507200713 | 58 | 215 | 1.0 | 2.0 | 0.00 | 0.00 | 0.00 | 85 | 1048.5 |
| 20260507200629 | 58 | 215 | 1.0 | 2.0 | 0.00 | 0.00 | 0.00 | 85 | 1048.5 |
| 20260507200623 | 58 | 214 | 0.0 | 2.0 | 0.00 | 0.00 | 0.00 | 85 | 1048.5 |
| 20260507200612 | 58 | 214 | 0.0 | 2.0 | 0.00 | 0.00 | 0.00 | 85 | 1048.5 |
| 20260507200559 | 58 | 215 | 0.0 | 2.0 | 0.00 | 0.00 | 0.00 | 85 | 1048.5 |
| 20260507200330 | 58 | 215 | 0.0 | 2.0 | 0.00 | 0.00 | 0.00 | 85 | 1048.5 |
| 20260507200007 | 58 | 215 | 0.0 | 1.0 | 0.00 | 0.00 | 0.00 | 84 | 1048.5 |
| 20260507195930 | 58 | 215 | 0.0 | 1.0 | 0.00 | 0.00 | 0.00 | 84 | 1048.5 |
| 20260507195905 | 58 | 214 | 0.0 | 1.0 | 0.00 | 0.00 | 0.00 | 84 | 1048.5 |
| 20260507195806 | 58 | 215 | 0.0 | 1.0 | 0.00 | 0.00 | 0.00 | 84 | 1048.5 |
| 20260507195705 | 58 | 215 | 0.0 | 2.0 | 0.00 | 0.00 | 0.00 | 84 | 1048.6 |
| 20260507195606 | 58 | 214 | 0.0 | 2.0 | 0.00 | 0.00 | 0.00 | 84 | 1048.6 |
| 20260507195505 | 58 | 215 | 0.0 | 2.0 | 0.00 | 0.00 | 0.00 | 84 | 1048.6 |
| 20260507195436 | 58 | 214 | 0.0 | 2.0 | 0.00 | 0.00 | 0.00 | 84 | 1048.6 |
| 20260507195406 | 58 | 215 | 0.0 | 2.0 | 0.00 | 0.00 | 0.00 | 84 | 1048.6 |
| 20260507195306 | 58 | 215 | 0.0 | 2.0 | 0.00 | 0.00 | 0.00 | 84 | 1048.6 |
| 20260507195207 | 58 | 215 | 0.0 | 2.0 | 0.00 | 0.00 | 0.00 | 83 | 1048.6 |
| 20260507195146 | 58 | 215 | 0.0 | 2.0 | 0.00 | 0.00 | 0.00 | 83 | 1048.6 |
| 20260507195138 | 58 | 215 | 0.0 | 2.0 | 0.00 | 0.00 | 0.00 | 83 | 1048.6 |
| 20260507195127 | 58 | 214 | 0.0 | 2.0 | 0.00 | 0.00 | 0.00 | 83 | 1048.6 |
| 20260507194806 | 58 | 214 | 0.0 | 2.0 | 0.00 | 0.00 | 0.00 | 83 | 1048.6 |
| 20260507194703 | 58 | 215 | 0.0 | 2.0 | 0.00 | 0.00 | 0.00 | 83 | 1048.5 |
| 20260507194603 | 59 | 214 | 0.0 | 2.0 | 0.00 | 0.00 | 0.00 | 83 | 1048.5 |
| 20260507194553 | 59 | 214 | 0.0 | 2.0 | 0.00 | 0.00 | 0.00 | 83 | 1048.5 |
| 20260507194541 | 59 | 214 | 1.0 | 2.0 | 0.00 | 0.00 | 0.00 | 82 | 1048.4 |
| 20260507194532 | 59 | 215 | 1.0 | 2.0 | 0.00 | 0.00 | 0.00 | 82 | 1048.4 |
| 20260507194237 | 59 | 215 | 1.0 | 2.0 | 0.00 | 0.00 | 0.00 | 82 | 1048.4 |
| 20260507194228 | 59 | 215 | 1.0 | 2.0 | 0.00 | 0.00 | 0.00 | 82 | 1048.3 |
| 20260507193942 | 59 | 215 | 1.0 | 2.0 | 0.00 | 0.00 | 0.00 | 82 | 1048.3 |
| 20260507193935 | 59 | 215 | 1.0 | 2.0 | 0.00 | 0.00 | 0.00 | 81 | 1048.3 |
| 20260507193928 | 59 | 214 | 1.0 | 2.0 | 0.00 | 0.00 | 0.00 | 81 | 1048.3 |
| 20260507193605 | 59 | 215 | 0.0 | 2.0 | 0.00 | 0.00 | 0.00 | 81 | 1048.2 |
| 20260507193504 | 59 | 215 | 0.0 | 2.0 | 0.00 | 0.00 | 0.00 | 81 | 1048.2 |
| 20260507193418 | 59 | 215 | 0.0 | 2.0 | 0.00 | 0.00 | 0.00 | 81 | 1048.2 |
| 20260507193303 | 60 | 215 | 0.0 | 2.0 | 0.00 | 0.00 | 0.00 | 81 | 1048.2 |
| 20260507193203 | 60 | 214 | 0.0 | 1.0 | 0.00 | 0.00 | 0.00 | 81 | 1048.2 |
| 20260507193104 | 60 | 215 | 0.0 | 2.0 | 0.00 | 0.00 | 0.00 | 81 | 1048.1 |
| 20260507193006 | 60 | 214 | 0.0 | 5.0 | 0.00 | 0.00 | 0.00 | 81 | 1048.1 |
| 20260507192926 | 60 | 215 | 0.0 | 5.0 | 0.00 | 0.00 | 0.00 | 81 | 1048.1 |
| 20260507192902 | 60 | 215 | 0.0 | 5.0 | 0.00 | 0.00 | 0.00 | 80 | 1048.1 |
| 20260507192759 | 60 | 215 | 0.0 | 5.0 | 0.00 | 0.00 | 0.00 | 80 | 1048.1 |
| 20260507192656 | 60 | 214 | 1.0 | 5.0 | 0.00 | 0.00 | 0.00 | 80 | 1048.0 |
| 20260507192554 | 60 | 214 | 1.0 | 5.0 | 0.00 | 0.00 | 0.00 | 80 | 1048.0 |
| 20260507192454 | 60 | 214 | 1.0 | 5.0 | 0.00 | 0.00 | 0.00 | 80 | 1048.0 |
| 20260507192426 | 60 | 215 | 1.0 | 5.0 | 0.00 | 0.00 | 0.00 | 80 | 1048.0 |
| 20260507192354 | 60 | 216 | 1.0 | 5.0 | 0.00 | 0.00 | 0.00 | 80 | 1048.0 |
| 20260507192254 | 60 | 215 | 2.0 | 5.0 | 0.00 | 0.00 | 0.00 | 80 | 1047.9 |
| 20260507192148 | 60 | 214 | 2.0 | 5.0 | 0.00 | 0.00 | 0.00 | 80 | 1047.9 |
| 20260507192131 | 60 | 214 | 2.0 | 5.0 | 0.00 | 0.00 | 0.00 | 80 | 1047.9 |
| 20260507192113 | 60 | 215 | 2.0 | 5.0 | 0.00 | 0.00 | 0.00 | 80 | 1047.9 |
| 20260507191747 | 60 | 215 | 3.0 | 5.0 | 0.00 | 0.00 | 0.00 | 80 | 1047.9 |
| 20260507191649 | 60 | 214 | 3.0 | 5.0 | 0.00 | 0.00 | 0.00 | 80 | 1047.9 |
| 20260507191548 | 60 | 215 | 3.0 | 5.0 | 0.00 | 0.00 | 0.00 | 79 | 1047.8 |
| 20260507191457 | 60 | 215 | 3.0 | 5.0 | 0.00 | 0.00 | 0.00 | 79 | 1047.8 |
| 20260507191444 | 60 | 215 | 3.0 | 5.0 | 0.00 | 0.00 | 0.00 | 79 | 1047.7 |
| 20260507191436 | 60 | 215 | 3.0 | 5.0 | 0.00 | 0.00 | 0.00 | 79 | 1047.7 |
| 20260507191424 | 60 | 214 | 3.0 | 5.0 | 0.00 | 0.00 | 0.00 | 79 | 1047.7 |
| 20260507191416 | 60 | 214 | 3.0 | 5.0 | 0.00 | 0.00 | 0.00 | 79 | 1047.7 |
| 20260507191147 | 61 | 214 | 3.0 | 6.0 | 0.00 | 0.00 | 0.00 | 79 | 1047.8 |
| 20260507190845 | 61 | 214 | 2.0 | 6.0 | 0.00 | 0.00 | 0.00 | 79 | 1047.8 |
| 20260507190745 | 61 | 214 | 2.0 | 6.0 | 0.00 | 0.00 | 0.00 | 79 | 1047.8 |
| 20260507190713 | 61 | 214 | 2.0 | 6.0 | 0.00 | 0.00 | 0.00 | 78 | 1047.8 |
| 20260507190706 | 61 | 213 | 3.0 | 6.0 | 0.00 | 0.00 | 0.00 | 79 | 1047.9 |
| 20260507190427 | 61 | 213 | 3.0 | 6.0 | 0.00 | 0.00 | 0.00 | 78 | 1047.9 |
| 20260507190342 | 61 | 213 | 3.0 | 6.0 | 0.00 | 0.00 | 0.00 | 78 | 1047.8 |
| 20260507190242 | 61 | 213 | 3.0 | 7.0 | 0.00 | 0.00 | 0.00 | 78 | 1047.8 |
| 20260507190207 | 61 | 212 | 3.0 | 7.0 | 0.00 | 0.00 | 0.00 | 78 | 1047.8 |
| 20260507190157 | 61 | 212 | 3.0 | 7.0 | 0.00 | 0.00 | 0.00 | 78 | 1047.7 |
| 20260507185924 | 61 | 212 | 3.0 | 7.0 | 0.00 | 0.00 | 0.00 | 78 | 1047.8 |
| 20260507185832 | 61 | 212 | 3.0 | 7.0 | 0.00 | 0.00 | 0.00 | 78 | 1047.8 |
| 20260507185732 | 61 | 212 | 3.0 | 7.0 | 0.00 | 0.00 | 0.00 | 77 | 1047.8 |
| 20260507185632 | 61 | 212 | 3.0 | 7.0 | 0.00 | 0.00 | 0.00 | 77 | 1047.8 |
| 20260507185532 | 61 | 212 | 3.0 | 7.0 | 0.00 | 0.00 | 0.00 | 77 | 1047.7 |
| 20260507185424 | 61 | 212 | 3.0 | 7.0 | 0.00 | 0.00 | 0.00 | 77 | 1047.7 |
| 20260507185411 | 61 | 212 | 2.0 | 7.0 | 0.00 | 0.00 | 0.00 | 77 | 1047.7 |
| 20260507185403 | 61 | 200 | 2.0 | 6.0 | 0.00 | 0.00 | 0.00 | 77 | 1047.7 |
| 20260507185350 | 62 | 200 | 2.0 | 6.0 | 0.00 | 0.00 | 0.00 | 77 | 1047.7 |
| 20260507185058 | 62 | 199 | 2.0 | 6.0 | 0.00 | 0.00 | 0.00 | 77 | 1047.7 |
| 20260507184731 | 62 | 199 | 3.0 | 10.0 | 0.00 | 0.00 | 0.00 | 77 | 1047.6 |
| 20260507184632 | 62 | 200 | 3.0 | 10.0 | 0.00 | 0.00 | 0.00 | 76 | 1047.6 |
| 20260507184531 | 62 | 199 | 3.0 | 10.0 | 0.00 | 0.00 | 0.00 | 76 | 1047.6 |
| 20260507184435 | 62 | 200 | 3.0 | 10.0 | 0.00 | 0.00 | 0.00 | 76 | 1047.6 |
| 20260507184424 | 62 | 199 | 3.0 | 10.0 | 0.00 | 0.00 | 0.00 | 76 | 1047.6 |
| 20260507184331 | 62 | 199 | 3.0 | 10.0 | 0.00 | 0.00 | 0.00 | 76 | 1047.6 |
| 20260507184232 | 62 | 199 | 4.0 | 10.0 | 0.00 | 0.00 | 0.00 | 76 | 1047.6 |
| 20260507184202 | 62 | 199 | 4.0 | 10.0 | 0.00 | 0.00 | 0.00 | 76 | 1047.6 |
| 20260507184154 | 62 | 200 | 4.0 | 10.0 | 0.00 | 0.00 | 0.00 | 76 | 1047.5 |
| 20260507184143 | 62 | 199 | 4.0 | 10.0 | 0.00 | 0.00 | 0.00 | 76 | 1047.5 |
| 20260507183832 | 62 | 198 | 4.0 | 10.0 | 0.00 | 0.00 | 0.00 | 75 | 1047.5 |
| 20260507183732 | 62 | 192 | 4.0 | 7.0 | 0.00 | 0.00 | 0.00 | 75 | 1047.5 |
| 20260507183632 | 62 | 191 | 4.0 | 7.0 | 0.00 | 0.00 | 0.00 | 75 | 1047.4 |
| 20260507183531 | 62 | 191 | 4.0 | 7.0 | 0.00 | 0.00 | 0.00 | 75 | 1047.4 |
| 20260507183422 | 62 | 191 | 4.0 | 7.0 | 0.00 | 0.00 | 0.00 | 75 | 1047.3 |
| 20260507183331 | 62 | 191 | 4.0 | 7.0 | 0.00 | 0.00 | 0.00 | 75 | 1047.3 |
| 20260507183231 | 62 | 191 | 4.0 | 7.0 | 0.00 | 0.00 | 0.00 | 75 | 1047.3 |
| 20260507183132 | 62 | 191 | 4.0 | 7.0 | 0.00 | 0.00 | 0.00 | 74 | 1047.2 |
| 20260507183036 | 62 | 191 | 5.0 | 10.0 | 0.00 | 0.00 | 0.00 | 75 | 1047.2 |
| 20260507183017 | 62 | 188 | 4.0 | 10.0 | 0.00 | 0.00 | 0.00 | 75 | 1047.2 |
| 20260507183000 | 62 | 187 | 4.0 | 10.0 | 0.00 | 0.00 | 0.00 | 74 | 1047.2 |
| 20260507182953 | 63 | 186 | 4.0 | 10.0 | 0.00 | 0.00 | 0.00 | 74 | 1047.2 |
| 20260507182939 | 63 | 185 | 4.0 | 10.0 | 0.00 | 0.00 | 0.00 | 74 | 1047.2 |
| 20260507182928 | 63 | 183 | 4.0 | 10.0 | 0.00 | 0.00 | 0.00 | 74 | 1047.2 |
| 20260507182918 | 63 | 240 | 4.0 | 10.0 | 0.00 | 0.00 | 0.00 | 74 | 1047.2 |
| 20260507182651 | 63 | 241 | 4.0 | 10.0 | 0.00 | 0.00 | 0.00 | 73 | 1047.2 |
| 20260507182640 | 63 | 241 | 5.0 | 10.0 | 0.00 | 0.00 | 0.00 | 73 | 1047.2 |
| 20260507182634 | 63 | 241 | 5.0 | 10.0 | 0.00 | 0.00 | 0.00 | 73 | 1047.2 |
| 20260507182620 | 63 | 244 | 5.0 | 9.0 | 0.00 | 0.00 | 0.00 | 73 | 1047.2 |
| 20260507182610 | 63 | 231 | 5.0 | 9.0 | 0.00 | 0.00 | 0.00 | 73 | 1047.2 |
| 20260507182342 | 63 | 231 | 5.0 | 9.0 | 0.00 | 0.00 | 0.00 | 73 | 1047.2 |
| 20260507182336 | 63 | 231 | 5.0 | 9.0 | 0.00 | 0.00 | 0.00 | 73 | 1047.2 |
| 20260507181610 | 63 | 230 | 5.0 | 10.0 | 0.00 | 0.00 | 0.00 | 72 | 1047.2 |
| 20260507181344 | 64 | 255 | 5.0 | 10.0 | 0.00 | 0.00 | 0.00 | 71 | 1047.1 |
| 20260507181023 | 64 | 165 | 5.0 | 10.0 | 0.00 | 0.00 | 0.00 | 71 | 1047.2 |
| 20260507180951 | 64 | 237 | 5.0 | 10.0 | 0.00 | 0.00 | 0.00 | 71 | 1047.0 |
| 20260507180938 | 64 | 235 | 5.0 | 10.0 | 0.00 | 0.00 | 0.00 | 71 | 1047.0 |
| 20260507180618 | 64 | 235 | 4.0 | 10.0 | 0.00 | 0.00 | 0.00 | 70 | 1047.1 |
| 20260507180518 | 64 | 249 | 4.0 | 10.0 | 0.00 | 0.00 | 0.00 | 70 | 1047.0 |
| 20260507180421 | 64 | 224 | 4.0 | 9.0 | 0.00 | 0.00 | 0.00 | 70 | 1047.0 |
| 20260507180315 | 64 | 220 | 4.0 | 9.0 | 0.00 | 0.00 | 0.00 | 69 | 1047.0 |
| 20260507180211 | 64 | 221 | 4.0 | 9.0 | 0.00 | 0.00 | 0.00 | 69 | 1047.0 |
| 20260507180112 | 64 | 229 | 3.0 | 9.0 | 0.00 | 0.00 | 0.00 | 69 | 1047.1 |
| 20260507180012 | 64 | 235 | 4.0 | 9.0 | 0.00 | 0.00 | 0.00 | 69 | 1047.0 |
| 20260507175911 | 64 | 253 | 4.0 | 8.0 | 0.00 | 0.00 | 0.00 | 69 | 1047.0 |
| 20260507175811 | 64 | 253 | 4.0 | 8.0 | 0.00 | 0.00 | 0.00 | 69 | 1047.0 |
| 20260507175710 | 64 | 254 | 4.0 | 8.0 | 0.00 | 0.00 | 0.00 | 68 | 1047.0 |
| 20260507175654 | 64 | 253 | 4.0 | 8.0 | 0.00 | 0.00 | 0.00 | 68 | 1046.9 |
| 20260507175643 | 65 | 253 | 4.0 | 8.0 | 0.00 | 0.00 | 0.00 | 68 | 1047.0 |
| 20260507175410 | 65 | 253 | 5.0 | 8.0 | 0.00 | 0.00 | 0.00 | 68 | 1046.9 |
| 20260507175309 | 65 | 256 | 5.0 | 8.0 | 0.00 | 0.00 | 0.00 | 68 | 1046.9 |
| 20260507175207 | 65 | 211 | 5.0 | 8.0 | 0.00 | 0.00 | 0.00 | 68 | 1046.9 |
| 20260507175108 | 65 | 211 | 5.0 | 8.0 | 0.00 | 0.00 | 0.00 | 67 | 1046.9 |
| 20260507175005 | 65 | 210 | 4.0 | 8.0 | 0.00 | 0.00 | 0.00 | 67 | 1046.9 |
| 20260507174906 | 65 | 207 | 4.0 | 8.0 | 0.00 | 0.00 | 0.00 | 67 | 1046.9 |
| 20260507174806 | 65 | 206 | 4.0 | 8.0 | 0.00 | 0.00 | 0.00 | 67 | 1046.9 |
| 20260507174724 | 65 | 206 | 4.0 | 8.0 | 0.00 | 0.00 | 0.00 | 67 | 1046.9 |
| 20260507174715 | 65 | 206 | 4.0 | 8.0 | 0.00 | 0.00 | 0.00 | 67 | 1046.8 |
| 20260507174704 | 65 | 206 | 4.0 | 8.0 | 0.00 | 0.00 | 0.00 | 67 | 1046.8 |
| 20260507174650 | 65 | 206 | 4.0 | 8.0 | 0.00 | 0.00 | 0.00 | 67 | 1046.8 |
| 20260507174424 | 65 | 204 | 3.0 | 7.0 | 0.00 | 0.00 | 0.00 | 67 | 1046.8 |
| 20260507174104 | 65 | 206 | 4.0 | 7.0 | 0.00 | 0.00 | 0.00 | 67 | 1046.8 |
| 20260507174007 | 65 | 189 | 4.0 | 9.0 | 0.00 | 0.00 | 0.00 | 67 | 1046.8 |
| 20260507173903 | 65 | 222 | 4.0 | 9.0 | 0.00 | 0.00 | 0.00 | 67 | 1046.8 |
| 20260507173803 | 65 | 222 | 4.0 | 9.0 | 0.00 | 0.00 | 0.00 | 67 | 1046.7 |
| 20260507173701 | 65 | 223 | 4.0 | 9.0 | 0.00 | 0.00 | 0.00 | 67 | 1046.8 |
| 20260507173631 | 65 | 223 | 4.0 | 9.0 | 0.00 | 0.00 | 0.00 | 66 | 1046.7 |
| 20260507173623 | 65 | 223 | 4.0 | 9.0 | 0.00 | 0.00 | 0.00 | 66 | 1046.7 |
| 20260507173611 | 65 | 223 | 4.0 | 9.0 | 0.00 | 0.00 | 0.00 | 66 | 1046.8 |
| 20260507173252 | 65 | 223 | 4.0 | 9.0 | 0.00 | 0.00 | 0.00 | 66 | 1046.8 |
| 20260507173151 | 65 | 222 | 4.0 | 9.0 | 0.00 | 0.00 | 0.00 | 65 | 1046.8 |
| 20260507173132 | 65 | 226 | 3.0 | 9.0 | 0.00 | 0.00 | 0.00 | 65 | 1046.8 |
| 20260507173124 | 65 | 164 | 3.0 | 9.0 | 0.00 | 0.00 | 0.00 | 65 | 1046.8 |
| 20260507173113 | 65 | 164 | 3.0 | 9.0 | 0.00 | 0.00 | 0.00 | 64 | 1046.8 |
| 20260507173107 | 65 | 164 | 3.0 | 9.0 | 0.00 | 0.00 | 0.00 | 64 | 1046.8 |
| 20260507173057 | 65 | 163 | 3.0 | 9.0 | 0.00 | 0.00 | 0.00 | 64 | 1046.8 |
| 20260507173046 | 65 | 163 | 3.0 | 9.0 | 0.00 | 0.00 | 0.00 | 63 | 1046.7 |
| 20260507172604 | 65 | 219 | 3.0 | 9.0 | 0.00 | 0.00 | 0.00 | 63 | 1046.7 |
| 20260507172307 | 65 | 219 | 4.0 | 11.0 | 0.00 | 0.00 | 0.00 | 62 | 1046.7 |
| 20260507172255 | 65 | 219 | 4.0 | 11.0 | 0.00 | 0.00 | 0.00 | 62 | 1046.7 |
| 20260507171933 | 66 | 220 | 5.0 | 11.0 | 0.00 | 0.00 | 0.00 | 61 | 1046.7 |
| 20260507171909 | 66 | 219 | 5.0 | 11.0 | 0.00 | 0.00 | 0.00 | 62 | 1046.7 |
| 20260507171831 | 66 | 220 | 4.0 | 11.0 | 0.00 | 0.00 | 0.00 | 62 | 1046.8 |
| 20260507171734 | 66 | 214 | 4.0 | 11.0 | 0.00 | 0.00 | 0.00 | 62 | 1046.7 |
| 20260507171633 | 66 | 215 | 4.0 | 11.0 | 0.00 | 0.00 | 0.00 | 62 | 1046.7 |
| 20260507171537 | 66 | 215 | 4.0 | 11.0 | 0.00 | 0.00 | 0.00 | 62 | 1046.7 |
| 20260507171529 | 66 | 216 | 4.0 | 11.0 | 0.00 | 0.00 | 0.00 | 62 | 1046.7 |
| 20260507171519 | 66 | 166 | 4.0 | 11.0 | 0.00 | 0.00 | 0.00 | 63 | 1046.7 |
| 20260507171509 | 66 | 164 | 4.0 | 11.0 | 0.00 | 0.00 | 0.00 | 63 | 1046.7 |
| 20260507171503 | 66 | 152 | 3.0 | 8.0 | 0.00 | 0.00 | 0.00 | 63 | 1046.7 |
| 20260507171454 | 66 | 201 | 3.0 | 8.0 | 0.00 | 0.00 | 0.00 | 63 | 1046.7 |
| 20260507171443 | 66 | 212 | 3.0 | 8.0 | 0.00 | 0.00 | 0.00 | 63 | 1046.7 |
| 20260507170956 | 66 | 194 | 3.0 | 6.0 | 0.00 | 0.00 | 0.00 | 63 | 1046.7 |
| 20260507170632 | 66 | 189 | 4.0 | 7.0 | 0.00 | 0.00 | 0.00 | 62 | 1046.6 |
| 20260507170532 | 66 | 187 | 4.0 | 8.0 | 0.00 | 0.00 | 0.00 | 61 | 1046.6 |
| 20260507170405 | 67 | 186 | 4.0 | 10.0 | 0.00 | 0.00 | 0.00 | 61 | 1046.6 |
| 20260507170353 | 67 | 186 | 4.0 | 10.0 | 0.00 | 0.00 | 0.00 | 61 | 1046.6 |
| 20260507170347 | 67 | 185 | 4.0 | 10.0 | 0.00 | 0.00 | 0.00 | 60 | 1046.6 |
| 20260507170334 | 67 | 204 | 4.0 | 10.0 | 0.00 | 0.00 | 0.00 | 60 | 1046.6 |
| 20260507170326 | 67 | 200 | 4.0 | 10.0 | 0.00 | 0.00 | 0.00 | 61 | 1046.6 |
| 20260507170056 | 67 | 220 | 4.0 | 10.0 | 0.00 | 0.00 | 0.00 | 61 | 1046.6 |
| 20260507165721 | 67 | 172 | 4.0 | 10.0 | 0.00 | 0.00 | 0.00 | 60 | 1046.6 |
| 20260507165622 | 67 | 172 | 3.0 | 10.0 | 0.00 | 0.00 | 0.00 | 60 | 1046.6 |
| 20260507165521 | 67 | 213 | 3.0 | 9.0 | 0.00 | 0.00 | 0.00 | 60 | 1046.6 |
| 20260507165404 | 67 | 183 | 3.0 | 7.0 | 0.00 | 0.00 | 0.00 | 61 | 1046.5 |
| 20260507165315 | 67 | 183 | 3.0 | 7.0 | 0.00 | 0.00 | 0.00 | 60 | 1046.6 |
| 20260507165214 | 67 | 212 | 3.0 | 7.0 | 0.00 | 0.00 | 0.00 | 61 | 1046.5 |
| 20260507165115 | 67 | 212 | 3.0 | 7.0 | 0.00 | 0.00 | 0.00 | 61 | 1046.5 |
| 20260507165032 | 67 | 126 | 3.0 | 7.0 | 0.00 | 0.00 | 0.00 | 61 | 1046.5 |
| 20260507165006 | 68 | 202 | 4.0 | 7.0 | 0.00 | 0.00 | 0.00 | 61 | 1046.5 |
| 20260507164958 | 68 | 201 | 4.0 | 7.0 | 0.00 | 0.00 | 0.00 | 60 | 1046.5 |
| 20260507164935 | 68 | 201 | 4.0 | 7.0 | 0.00 | 0.00 | 0.00 | 60 | 1046.5 |
| 20260507164928 | 68 | 201 | 4.0 | 7.0 | 0.00 | 0.00 | 0.00 | 60 | 1046.5 |
| 20260507164435 | 68 | 198 | 4.0 | 9.0 | 0.00 | 0.00 | 0.00 | 60 | 1046.5 |
| 20260507164426 | 68 | 195 | 4.0 | 9.0 | 0.00 | 0.00 | 0.00 | 60 | 1046.5 |
| 20260507164149 | 68 | 268 | 4.0 | 9.0 | 0.00 | 0.00 | 0.00 | 60 | 1046.5 |
| 20260507164142 | 68 | 220 | 4.0 | 9.0 | 0.00 | 0.00 | 0.00 | 60 | 1046.5 |
| 20260507163906 | 68 | 221 | 4.0 | 9.0 | 0.00 | 0.00 | 0.00 | 60 | 1046.5 |
| 20260507163804 | 68 | 220 | 4.0 | 9.0 | 0.00 | 0.00 | 0.00 | 60 | 1046.5 |
| 20260507163704 | 68 | 212 | 4.0 | 9.0 | 0.00 | 0.00 | 0.00 | 60 | 1046.5 |
| 20260507163604 | 68 | 182 | 4.0 | 9.0 | 0.00 | 0.00 | 0.00 | 59 | 1046.5 |
| 20260507163503 | 68 | 181 | 4.0 | 9.0 | 0.00 | 0.00 | 0.00 | 60 | 1046.5 |
| 20260507163408 | 68 | 188 | 4.0 | 9.0 | 0.00 | 0.00 | 0.00 | 60 | 1046.5 |
| 20260507163306 | 68 | 224 | 4.0 | 9.0 | 0.00 | 0.00 | 0.00 | 61 | 1046.4 |
| 20260507163204 | 67 | 226 | 4.0 | 9.0 | 0.00 | 0.00 | 0.00 | 60 | 1046.4 |
| 20260507163106 | 67 | 227 | 4.0 | 9.0 | 0.00 | 0.00 | 0.00 | 60 | 1046.4 |
| 20260507163004 | 67 | 226 | 4.0 | 9.0 | 0.00 | 0.00 | 0.00 | 59 | 1046.4 |
| 20260507162907 | 67 | 226 | 4.0 | 9.0 | 0.00 | 0.00 | 0.00 | 59 | 1046.4 |
| 20260507162804 | 67 | 211 | 4.0 | 9.0 | 0.00 | 0.00 | 0.00 | 59 | 1046.4 |
| 20260507162703 | 67 | 210 | 4.0 | 9.0 | 0.00 | 0.00 | 0.00 | 60 | 1046.4 |
| 20260507162604 | 67 | 230 | 3.0 | 9.0 | 0.00 | 0.00 | 0.00 | 59 | 1046.4 |
| 20260507162503 | 67 | 135 | 4.0 | 8.0 | 0.00 | 0.00 | 0.00 | 58 | 1046.3 |
| 20260507162406 | 68 | 134 | 4.0 | 11.0 | 0.00 | 0.00 | 0.00 | 58 | 1046.4 |
| 20260507162318 | 68 | 179 | 4.0 | 11.0 | 0.00 | 0.00 | 0.00 | 58 | 1046.4 |
| 20260507162310 | 68 | 211 | 4.0 | 11.0 | 0.00 | 0.00 | 0.00 | 59 | 1046.3 |
| 20260507162254 | 68 | 211 | 4.0 | 11.0 | 0.00 | 0.00 | 0.00 | 59 | 1046.3 |
| 20260507162247 | 68 | 212 | 3.0 | 11.0 | 0.00 | 0.00 | 0.00 | 60 | 1046.3 |
| 20260507162231 | 68 | 258 | 3.0 | 11.0 | 0.00 | 0.00 | 0.00 | 61 | 1046.3 |
| 20260507161957 | 67 | 258 | 4.0 | 11.0 | 0.00 | 0.00 | 0.00 | 60 | 1046.3 |
| 20260507161946 | 67 | 260 | 4.0 | 11.0 | 0.00 | 0.00 | 0.00 | 60 | 1046.3 |
| 20260507161924 | 67 | 261 | 4.0 | 11.0 | 0.00 | 0.00 | 0.00 | 59 | 1046.3 |
| 20260507161907 | 67 | 206 | 4.0 | 10.0 | 0.00 | 0.00 | 0.00 | 59 | 1046.3 |
| 20260507161851 | 67 | 142 | 4.0 | 10.0 | 0.00 | 0.00 | 0.00 | 59 | 1046.4 |
| 20260507161620 | 67 | 141 | 5.0 | 10.0 | 0.00 | 0.00 | 0.00 | 59 | 1046.4 |
| 20260507161031 | 67 | 185 | 5.0 | 10.0 | 0.00 | 0.00 | 0.00 | 60 | 1046.4 |
| 20260507160704 | 67 | 179 | 5.0 | 11.0 | 0.00 | 0.00 | 0.00 | 60 | 1046.4 |
| 20260507160644 | 67 | 178 | 5.0 | 11.0 | 0.00 | 0.00 | 0.00 | 60 | 1046.4 |
| 20260507160637 | 67 | 191 | 5.0 | 11.0 | 0.00 | 0.00 | 0.00 | 60 | 1046.3 |
| 20260507160618 | 67 | 200 | 5.0 | 11.0 | 0.00 | 0.00 | 0.00 | 61 | 1046.4 |
| 20260507160306 | 67 | 181 | 6.0 | 11.0 | 0.00 | 0.00 | 0.00 | 61 | 1046.3 |
| 20260507160203 | 67 | 197 | 6.0 | 12.0 | 0.00 | 0.00 | 0.00 | 61 | 1046.3 |
| 20260507160110 | 67 | 181 | 6.0 | 12.0 | 0.00 | 0.00 | 0.00 | 62 | 1046.3 |
| 20260507160004 | 67 | 168 | 6.0 | 12.0 | 0.00 | 0.00 | 0.00 | 61 | 1046.3 |
| 20260507155906 | 67 | 166 | 6.0 | 12.0 | 0.00 | 0.00 | 0.00 | 61 | 1046.3 |
| 20260507155805 | 67 | 206 | 6.0 | 12.0 | 0.00 | 0.00 | 0.00 | 62 | 1046.2 |
| 20260507155731 | 67 | 221 | 6.0 | 12.0 | 0.00 | 0.00 | 0.00 | 61 | 1046.2 |
| 20260507155722 | 67 | 223 | 6.0 | 12.0 | 0.00 | 0.00 | 0.00 | 61 | 1046.2 |
| 20260507155406 | 67 | 221 | 6.0 | 12.0 | 0.00 | 0.00 | 0.00 | 61 | 1046.2 |
| 20260507155306 | 67 | 228 | 6.0 | 14.0 | 0.00 | 0.00 | 0.00 | 61 | 1046.3 |
| 20260507155204 | 67 | 230 | 6.0 | 14.0 | 0.00 | 0.00 | 0.00 | 61 | 1046.3 |
| 20260507155145 | 67 | 268 | 6.0 | 14.0 | 0.00 | 0.00 | 0.00 | 61 | 1046.3 |
| 20260507155137 | 67 | 212 | 6.0 | 14.0 | 0.00 | 0.00 | 0.00 | 61 | 1046.3 |
| 20260507154905 | 68 | 196 | 6.0 | 14.0 | 0.00 | 0.00 | 0.00 | 61 | 1046.4 |
| 20260507154804 | 68 | 129 | 6.0 | 14.0 | 0.00 | 0.00 | 0.00 | 61 | 1046.3 |
| 20260507154705 | 68 | 120 | 6.0 | 14.0 | 0.00 | 0.00 | 0.00 | 61 | 1046.3 |
| 20260507154603 | 68 | 172 | 6.0 | 14.0 | 0.00 | 0.00 | 0.00 | 61 | 1046.3 |
| 20260507154503 | 68 | 199 | 6.0 | 14.0 | 0.00 | 0.00 | 0.00 | 61 | 1046.3 |
| 20260507154407 | 68 | 212 | 5.0 | 14.0 | 0.00 | 0.00 | 0.00 | 61 | 1046.3 |
| 20260507154301 | 68 | 214 | 5.0 | 13.0 | 0.00 | 0.00 | 0.00 | 61 | 1046.4 |
| 20260507154201 | 68 | 203 | 5.0 | 12.0 | 0.00 | 0.00 | 0.00 | 62 | 1046.4 |
| 20260507154101 | 68 | 210 | 5.0 | 12.0 | 0.00 | 0.00 | 0.00 | 62 | 1046.4 |
| 20260507154001 | 68 | 231 | 6.0 | 12.0 | 0.00 | 0.00 | 0.00 | 62 | 1046.4 |
| 20260507153911 | 68 | 172 | 6.0 | 11.0 | 0.00 | 0.00 | 0.00 | 62 | 1046.4 |
| 20260507153758 | 67 | 183 | 6.0 | 11.0 | 0.00 | 0.00 | 0.00 | 62 | 1046.4 |
| 20260507153657 | 67 | 155 | 6.0 | 11.0 | 0.00 | 0.00 | 0.00 | 62 | 1046.4 |
| 20260507153557 | 67 | 170 | 5.0 | 11.0 | 0.00 | 0.00 | 0.00 | 63 | 1046.5 |
| 20260507153457 | 67 | 217 | 6.0 | 11.0 | 0.00 | 0.00 | 0.00 | 63 | 1046.4 |
| 20260507153358 | 67 | 215 | 5.0 | 11.0 | 0.00 | 0.00 | 0.00 | 62 | 1046.4 |
| 20260507153318 | 67 | 221 | 5.0 | 11.0 | 0.00 | 0.00 | 0.00 | 62 | 1046.5 |
| 20260507153309 | 67 | 199 | 5.0 | 11.0 | 0.00 | 0.00 | 0.00 | 62 | 1046.4 |
| 20260507152945 | 67 | 202 | 4.0 | 11.0 | 0.00 | 0.00 | 0.00 | 63 | 1046.5 |
| 20260507152848 | 67 | 233 | 4.0 | 9.0 | 0.00 | 0.00 | 0.00 | 63 | 1046.4 |
| 20260507152812 | 67 | 177 | 3.0 | 8.0 | 0.00 | 0.00 | 0.00 | 64 | 1046.4 |
| 20260507152805 | 67 | 179 | 4.0 | 8.0 | 0.00 | 0.00 | 0.00 | 64 | 1046.4 |
| 20260507152439 | 67 | 180 | 3.0 | 8.0 | 0.00 | 0.00 | 0.00 | 63 | 1046.4 |
| 20260507152339 | 67 | 181 | 3.0 | 8.0 | 0.00 | 0.00 | 0.00 | 63 | 1046.4 |
| 20260507152239 | 67 | 179 | 3.0 | 8.0 | 0.00 | 0.00 | 0.00 | 63 | 1046.4 |
| 20260507152139 | 67 | 174 | 4.0 | 8.0 | 0.00 | 0.00 | 0.00 | 63 | 1046.4 |
| 20260507152039 | 67 | 207 | 4.0 | 8.0 | 0.00 | 0.00 | 0.00 | 63 | 1046.4 |
| 20260507151939 | 67 | 207 | 4.0 | 9.0 | 0.00 | 0.00 | 0.00 | 62 | 1046.4 |